Observation data for Aiken on 09/11/2017      Previous  Date  Next       Current Mesonet Observations  Soil Data  Daily Summary Page  Observations in Plain Language
KAI1 110500Z 12007KT 14/10 A3026 RMK A01 T01370097  RH  077%=      5-min Rain = 0
KAI1 110501Z 12006KT 14/10 A3026 RMK A01 T01370097  RH  077%=      5-min Rain = 0
KAI1 110502Z 12006KT 14/10 A3026 RMK A01 T01360097  RH  077%=      5-min Rain = 0
KAI1 110503Z 12006KT 14/10 A3026 RMK A01 T01370097  RH  077%=      5-min Rain = 0
KAI1 110504Z 12007KT 14/10 A3026 RMK A01 T01370097  RH  077%=      5-min Rain = 0
KAI1 110505Z 12007KT 14/10 A3026 RMK A01 T01360096  RH  077%=      5-min Rain = 0
KAI1 110506Z 12006KT 14/10 A3026 RMK A01 T01360096  RH  077%=      5-min Rain = 0
KAI1 110507Z 12006KT 14/10 A3026 RMK A01 T01370096  RH  077%=      5-min Rain = 0
KAI1 110508Z 12006KT 14/10 A3026 RMK A01 T01370097  RH  077%=      5-min Rain = 0
KAI1 110509Z 12006KT 14/10 A3026 RMK A01 T01360096  RH  077%=      5-min Rain = 0
KAI1 110510Z 12006KT 14/10 A3026 RMK A01 T01360096  RH  077%=      5-min Rain = 0
KAI1 110511Z 12006KT 14/10 A3026 RMK A01 T01360096  RH  077%=      5-min Rain = 0
KAI1 110512Z 12006KT 14/10 A3026 RMK A01 T01350096  RH  077%=      5-min Rain = 0
KAI1 110513Z 12006KT 14/10 A3026 RMK A01 T01350096  RH  077%=      5-min Rain = 0
KAI1 110514Z 12006KT 14/10 A3026 RMK A01 T01350096  RH  077%=      5-min Rain = 0
KAI1 110515Z 12006KT 13/10 A3026 RMK A01 T01340095  RH  077%=      5-min Rain = 0
KAI1 110516Z 12006KT 13/09 A3026 RMK A01 T01340094  RH  077%=      5-min Rain = 0
KAI1 110517Z 12007KT 13/09 A3026 RMK A01 T01340093  RH  076%=      5-min Rain = 0
KAI1 110518Z 12007KT 13/09 A3026 RMK A01 T01340093  RH  076%=      5-min Rain = 0
KAI1 110519Z 12007KT 13/09 A3026 RMK A01 T01340093  RH  076%=      5-min Rain = 0
KAI1 110520Z 12007KT 13/09 A3026 RMK A01 T01340093  RH  076%=      5-min Rain = 0
KAI1 110521Z 12007KT 13/09 A3026 RMK A01 T01340093  RH  076%=      5-min Rain = 0
KAI1 110522Z 12007KT 13/09 A3026 RMK A01 T01340093  RH  076%=      5-min Rain = 0
KAI1 110523Z 12007KT 13/09 A3026 RMK A01 T01340093  RH  076%=      5-min Rain = 0
KAI1 110524Z 12007KT 13/09 A3026 RMK A01 T01340094  RH  077%=      5-min Rain = 0
KAI1 110525Z 12007KT 13/09 A3026 RMK A01 T01330093  RH  077%=      5-min Rain = 0
KAI1 110526Z 12007KT 13/09 A3026 RMK A01 T01330093  RH  077%=      5-min Rain = 0
KAI1 110527Z 12007KT 13/09 A3026 RMK A01 T01320093  RH  077%=      5-min Rain = 0
KAI1 110528Z 12007KT 13/09 A3026 RMK A01 T01320093  RH  077%=      5-min Rain = 0
KAI1 110529Z 12007KT 13/09 A3026 RMK A01 T01310093  RH  078%=      5-min Rain = 0
KAI1 110530Z 11006KT 13/09 A3026 RMK A01 T01320094  RH  078%=      5-min Rain = 0
KAI1 110531Z 12006KT 13/09 A3026 RMK A01 T01310094  RH  078%=      5-min Rain = 0
KAI1 110532Z 12006KT 13/09 A3026 RMK A01 T01310094  RH  078%=      5-min Rain = 0
KAI1 110533Z 12006KT 13/09 A3026 RMK A01 T01310094  RH  078%=      5-min Rain = 0
KAI1 110534Z 11006KT 13/10 A3026 RMK A01 T01310095  RH  079%=      5-min Rain = 0
KAI1 110535Z 11007KT 13/10 A3026 RMK A01 T01310095  RH  079%=      5-min Rain = 0
KAI1 110536Z 11007KT 13/10 A3026 RMK A01 T01310095  RH  079%=      5-min Rain = 0
KAI1 110537Z 11007KT 13/10 A3026 RMK A01 T01310096  RH  079%=      5-min Rain = 0
KAI1 110538Z 11007KT 13/10 A3026 RMK A01 T01300096  RH  080%=      5-min Rain = 0
KAI1 110539Z 11007KT 13/10 A3026 RMK A01 T01300096  RH  080%=      5-min Rain = 0
KAI1 110540Z 11007KT 13/10 A3026 RMK A01 T01300096  RH  080%=      5-min Rain = 0
KAI1 110541Z 11007KT 13/10 A3026 RMK A01 T01300096  RH  080%=      5-min Rain = 0
KAI1 110542Z 11007KT 13/10 A3026 RMK A01 T01300096  RH  080%=      5-min Rain = 0
KAI1 110543Z 11007KT 13/10 A3026 RMK A01 T01300096  RH  080%=      5-min Rain = 0
KAI1 110544Z 11007KT 13/10 A3026 RMK A01 T01300096  RH  080%=      5-min Rain = 0
KAI1 110545Z 11007KT 13/10 A3026 RMK A01 T01300096  RH  080%=      5-min Rain = 0
KAI1 110546Z 11007KT 13/10 A3026 RMK A01 T01300096  RH  080%=      5-min Rain = 0
KAI1 110547Z 11007KT 13/10 A3026 RMK A01 T01300096  RH  080%=      5-min Rain = 0
KAI1 110548Z 11007KT 13/10 A3026 RMK A01 T01300096  RH  080%=      5-min Rain = 0
KAI1 110549Z 11007KT 13/10 A3026 RMK A01 T01300096  RH  080%=      5-min Rain = 0
KAI1 110550Z 11007KT 13/10 A3026 RMK A01 T01300096  RH  080%=      5-min Rain = 0
KAI1 110551Z 11007KT 13/10 A3026 RMK A01 T01300096  RH  080%=      5-min Rain = 0
KAI1 110552Z 11007KT 13/10 A3026 RMK A01 T01300096  RH  080%=      5-min Rain = 0
KAI1 110553Z 11007KT 13/10 A3026 RMK A01 T01290096  RH  080%=      5-min Rain = 0
KAI1 110554Z 11007KT 13/10 A3026 RMK A01 T01290096  RH  080%=      5-min Rain = 0
KAI1 110555Z 11007KT 13/10 A3026 RMK A01 T01290096  RH  080%=      5-min Rain = 0
KAI1 110556Z 11007KT 13/10 A3026 RMK A01 T01290096  RH  080%=      5-min Rain = 0
KAI1 110557Z 11007KT 13/10 A3026 RMK A01 T01290096  RH  080%=      5-min Rain = 0
KAI1 110558Z 12007KT 13/10 A3026 RMK A01 T01290096  RH  080%=      5-min Rain = 0
KAI1 110559Z 12007KT 13/10 A3026 RMK A01 T01290095  RH  080%=      5-min Rain = 0
KAI1 110600Z 12007KT 13/10 A3026 RMK A01 T01290095  RH  080%=      5-min Rain = 0
KAI1 110601Z 12007KT 13/10 A3026 RMK A01 T01290095  RH  079%=      5-min Rain = 0
KAI1 110602Z 12007KT 13/09 A3026 RMK A01 T01290094  RH  079%=      5-min Rain = 0
KAI1 110603Z 12007KT 13/09 A3026 RMK A01 T01290094  RH  079%=      5-min Rain = 0
KAI1 110604Z 12007KT 13/09 A3026 RMK A01 T01290094  RH  079%=      5-min Rain = 0
KAI1 110605Z 12006KT 13/09 A3026 RMK A01 T01290093  RH  079%=      5-min Rain = 0
KAI1 110606Z 12006KT 13/09 A3026 RMK A01 T01290094  RH  079%=      5-min Rain = 0
KAI1 110607Z 12006KT 13/09 A3026 RMK A01 T01290093  RH  079%=      5-min Rain = 0
KAI1 110608Z 12006KT 13/09 A3026 RMK A01 T01290093  RH  079%=      5-min Rain = 0
KAI1 110609Z 12006KT 13/09 A3026 RMK A01 T01290093  RH  079%=      5-min Rain = 0
KAI1 110610Z 12006KT 13/09 A3026 RMK A01 T01290093  RH  079%=      5-min Rain = 0
KAI1 110611Z 12006KT 13/09 A3026 RMK A01 T01290093  RH  079%=      5-min Rain = 0
KAI1 110612Z 12006KT 13/09 A3026 RMK A01 T01280093  RH  079%=      5-min Rain = 0
KAI1 110613Z 12006KT 13/09 A3026 RMK A01 T01280092  RH  079%=      5-min Rain = 0
KAI1 110614Z 12006KT 13/09 A3025 RMK A01 T01270092  RH  079%=      5-min Rain = 0
KAI1 110615Z 12006KT 13/09 A3025 RMK A01 T01270092  RH  079%=      5-min Rain = 0
KAI1 110616Z 12006KT 13/09 A3025 RMK A01 T01260092  RH  080%=      5-min Rain = 0
KAI1 110617Z 12006KT 13/09 A3025 RMK A01 T01260092  RH  080%=      5-min Rain = 0
KAI1 110618Z 12006KT 13/09 A3025 RMK A01 T01260092  RH  080%=      5-min Rain = 0
KAI1 110619Z 12006KT 13/09 A3025 RMK A01 T01250092  RH  080%=      5-min Rain = 0
KAI1 110620Z 12006KT 13/09 A3025 RMK A01 T01250092  RH  080%=      5-min Rain = 0
KAI1 110621Z 12006KT 13/09 A3025 RMK A01 T01250091  RH  080%=      5-min Rain = 0
KAI1 110622Z 12006KT 13/09 A3025 RMK A01 T01250091  RH  080%=      5-min Rain = 0
KAI1 110623Z 12005KT 13/09 A3025 RMK A01 T01250091  RH  080%=      5-min Rain = 0
KAI1 110624Z 12005KT 13/09 A3025 RMK A01 T01250092  RH  080%=      5-min Rain = 0
KAI1 110625Z 12005KT 13/09 A3025 RMK A01 T01250092  RH  080%=      5-min Rain = 0
KAI1 110626Z 12006KT 13/09 A3025 RMK A01 T01250091  RH  080%=      5-min Rain = 0
KAI1 110627Z 12006KT 13/09 A3025 RMK A01 T01250091  RH  080%=      5-min Rain = 0
KAI1 110628Z 12006KT 13/09 A3025 RMK A01 T01250090  RH  079%=      5-min Rain = 0
KAI1 110629Z 12006KT 13/09 A3025 RMK A01 T01250090  RH  079%=      5-min Rain = 0
KAI1 110630Z 12006KT 12/09 A3025 RMK A01 T01240088  RH  079%=      5-min Rain = 0
KAI1 110631Z 12006KT 13/09 A3025 RMK A01 T01250088  RH  078%=      5-min Rain = 0
KAI1 110632Z 12006KT 13/09 A3025 RMK A01 T01250088  RH  078%=      5-min Rain = 0
KAI1 110633Z 12006KT 13/09 A3025 RMK A01 T01250088  RH  078%=      5-min Rain = 0
KAI1 110634Z 12006KT 13/09 A3025 RMK A01 T01260088  RH  078%=      5-min Rain = 0
KAI1 110635Z 12006KT 13/09 A3025 RMK A01 T01250088  RH  078%=      5-min Rain = 0
KAI1 110636Z 13006KT 13/09 A3025 RMK A01 T01260088  RH  078%=      5-min Rain = 0
KAI1 110637Z 13006KT 13/09 A3025 RMK A01 T01260089  RH  078%=      5-min Rain = 0
KAI1 110638Z 13006KT 13/09 A3025 RMK A01 T01250089  RH  078%=      5-min Rain = 0
KAI1 110639Z 13006KT 13/09 A3025 RMK A01 T01260089  RH  079%=      5-min Rain = 0
KAI1 110640Z 13006KT 13/09 A3025 RMK A01 T01250089  RH  079%=      5-min Rain = 0
KAI1 110641Z 13006KT 13/09 A3025 RMK A01 T01250090  RH  079%=      5-min Rain = 0
KAI1 110642Z 12006KT 13/09 A3025 RMK A01 T01250090  RH  079%=      5-min Rain = 0
KAI1 110643Z 12006KT 13/09 A3025 RMK A01 T01250090  RH  079%=      5-min Rain = 0
KAI1 110644Z 12006KT 13/09 A3025 RMK A01 T01250090  RH  079%=      5-min Rain = 0
KAI1 110645Z 12006KT 12/09 A3025 RMK A01 T01240090  RH  079%=      5-min Rain = 0
KAI1 110646Z 12006KT 12/09 A3025 RMK A01 T01240090  RH  080%=      5-min Rain = 0
KAI1 110647Z 12006KT 12/09 A3025 RMK A01 T01240090  RH  080%=      5-min Rain = 0
KAI1 110648Z 12006KT 12/09 A3025 RMK A01 T01240090  RH  080%=      5-min Rain = 0
KAI1 110649Z 12006KT 12/09 A3025 RMK A01 T01240090  RH  080%=      5-min Rain = 0
KAI1 110650Z 12006KT 12/09 A3025 RMK A01 T01240090  RH  080%=      5-min Rain = 0
KAI1 110651Z 12006KT 12/09 A3025 RMK A01 T01240090  RH  080%=      5-min Rain = 0
KAI1 110652Z 12006KT 12/09 A3025 RMK A01 T01240091  RH  080%=      5-min Rain = 0
KAI1 110653Z 12006KT 12/09 A3025 RMK A01 T01240089  RH  080%=      5-min Rain = 0
KAI1 110654Z 12006KT 12/09 A3025 RMK A01 T01240089  RH  079%=      5-min Rain = 0
KAI1 110655Z 12006KT 12/09 A3025 RMK A01 T01240089  RH  079%=      5-min Rain = 0
KAI1 110656Z 12006KT 12/09 A3025 RMK A01 T01240090  RH  080%=      5-min Rain = 0
KAI1 110657Z 12006KT 12/09 A3025 RMK A01 T01240090  RH  080%=      5-min Rain = 0
KAI1 110658Z 12006KT 12/09 A3025 RMK A01 T01240089  RH  080%=      5-min Rain = 0
KAI1 110659Z 12006KT 12/09 A3025 RMK A01 T01240090  RH  080%=      5-min Rain = 0
KAI1 110700Z 12006KT 12/09 A3025 RMK A01 T01240090  RH  080%=      5-min Rain = 0
KAI1 110701Z 12005KT 12/09 A3025 RMK A01 T01240091  RH  080%=      5-min Rain = 0
KAI1 110702Z 12005KT 12/09 A3025 RMK A01 T01240090  RH  080%=      5-min Rain = 0
KAI1 110703Z 12005KT 12/09 A3025 RMK A01 T01240091  RH  080%=      5-min Rain = 0
KAI1 110704Z 13005KT 12/09 A3025 RMK A01 T01240091  RH  080%=      5-min Rain = 0
KAI1 110705Z 13005KT 12/09 A3025 RMK A01 T01240091  RH  080%=      5-min Rain = 0
KAI1 110706Z 13005KT 13/09 A3025 RMK A01 T01250092  RH  080%=      5-min Rain = 0
KAI1 110707Z 13005KT 12/09 A3025 RMK A01 T01240091  RH  080%=      5-min Rain = 0
KAI1 110708Z 13005KT 12/09 A3025 RMK A01 T01240092  RH  081%=      5-min Rain = 0
KAI1 110709Z 13005KT 12/09 A3025 RMK A01 T01240091  RH  081%=      5-min Rain = 0
KAI1 110710Z 13005KT 12/09 A3025 RMK A01 T01240092  RH  080%=      5-min Rain = 0
KAI1 110711Z 12005KT 12/09 A3025 RMK A01 T01240091  RH  080%=      5-min Rain = 0
KAI1 110712Z 12006KT 13/09 A3025 RMK A01 T01250092  RH  080%=      5-min Rain = 0
KAI1 110713Z 12006KT 13/09 A3025 RMK A01 T01250091  RH  080%=      5-min Rain = 0
KAI1 110714Z 12006KT 13/09 A3025 RMK A01 T01250091  RH  080%=      5-min Rain = 0
KAI1 110715Z 12006KT 13/09 A3025 RMK A01 T01250091  RH  080%=      5-min Rain = 0
KAI1 110716Z 12006KT 13/09 A3025 RMK A01 T01250091  RH  080%=      5-min Rain = 0
KAI1 110717Z 12006KT 13/09 A3025 RMK A01 T01250091  RH  080%=      5-min Rain = 0
KAI1 110718Z 12006KT 13/09 A3025 RMK A01 T01250090  RH  080%=      5-min Rain = 0
KAI1 110719Z 12006KT 12/09 A3025 RMK A01 T01240090  RH  080%=      5-min Rain = 0
KAI1 110720Z 12006KT 12/09 A3025 RMK A01 T01240090  RH  080%=      5-min Rain = 0
KAI1 110721Z 12006KT 12/09 A3025 RMK A01 T01240090  RH  080%=      5-min Rain = 0
KAI1 110722Z 12006KT 12/09 A3025 RMK A01 T01230090  RH  080%=      5-min Rain = 0
KAI1 110723Z 12007KT 12/09 A3025 RMK A01 T01230090  RH  080%=      5-min Rain = 0
KAI1 110724Z 12007KT 12/09 A3025 RMK A01 T01230090  RH  080%=      5-min Rain = 0
KAI1 110725Z 12006KT 12/09 A3025 RMK A01 T01230090  RH  080%=      5-min Rain = 0
KAI1 110726Z 13006KT 12/09 A3025 RMK A01 T01220090  RH  080%=      5-min Rain = 0
KAI1 110727Z 13006KT 12/09 A3025 RMK A01 T01220089  RH  080%=      5-min Rain = 0
KAI1 110728Z 13006KT 12/09 A3025 RMK A01 T01220090  RH  081%=      5-min Rain = 0
KAI1 110729Z 13006KT 12/09 A3025 RMK A01 T01220090  RH  081%=      5-min Rain = 0
KAI1 110730Z 13007KT 12/09 A3025 RMK A01 T01220090  RH  081%=      5-min Rain = 0
KAI1 110731Z 13007KT 12/09 A3025 RMK A01 T01220090  RH  081%=      5-min Rain = 0
KAI1 110732Z 13007KT 12/09 A3025 RMK A01 T01220090  RH  081%=      5-min Rain = 0
KAI1 110733Z 13007KT 12/09 A3025 RMK A01 T01210090  RH  081%=      5-min Rain = 0
KAI1 110734Z 13007KT 12/09 A3025 RMK A01 T01210090  RH  081%=      5-min Rain = 0
KAI1 110735Z 13007KT 12/09 A3025 RMK A01 T01210089  RH  081%=      5-min Rain = 0
KAI1 110736Z 13007KT 12/09 A3025 RMK A01 T01210089  RH  081%=      5-min Rain = 0
KAI1 110737Z 13007KT 12/09 A3025 RMK A01 T01210089  RH  080%=      5-min Rain = 0
KAI1 110738Z 13006KT 12/09 A3025 RMK A01 T01220088  RH  080%=      5-min Rain = 0
KAI1 110739Z 13006KT 12/09 A3025 RMK A01 T01220088  RH  080%=      5-min Rain = 0
KAI1 110740Z 13006KT 12/09 A3025 RMK A01 T01230088  RH  079%=      5-min Rain = 0
KAI1 110741Z 13006KT 12/09 A3025 RMK A01 T01230088  RH  079%=      5-min Rain = 0
KAI1 110742Z 13006KT 12/09 A3025 RMK A01 T01230088  RH  079%=      5-min Rain = 0
KAI1 110743Z 13006KT 12/09 A3025 RMK A01 T01230087  RH  079%=      5-min Rain = 0
KAI1 110744Z 13006KT 12/09 A3025 RMK A01 T01240088  RH  078%=      5-min Rain = 0
KAI1 110745Z 13006KT 12/09 A3024 RMK A01 T01240087  RH  078%=      5-min Rain = 0
KAI1 110746Z 13006KT 12/09 A3024 RMK A01 T01240086  RH  078%=      5-min Rain = 0
KAI1 110747Z 13006KT 13/09 A3024 RMK A01 T01250086  RH  077%=      5-min Rain = 0
KAI1 110748Z 13006KT 12/09 A3024 RMK A01 T01240085  RH  077%=      5-min Rain = 0
KAI1 110749Z 13006KT 13/09 A3024 RMK A01 T01250085  RH  077%=      5-min Rain = 0
KAI1 110750Z 13006KT 13/09 A3024 RMK A01 T01250085  RH  076%=      5-min Rain = 0
KAI1 110751Z 13006KT 13/08 A3024 RMK A01 T01250084  RH  076%=      5-min Rain = 0
KAI1 110752Z 13006KT 13/08 A3024 RMK A01 T01250084  RH  076%=      5-min Rain = 0
KAI1 110753Z 13006KT 13/08 A3024 RMK A01 T01250082  RH  075%=      5-min Rain = 0
KAI1 110754Z 13006KT 13/08 A3024 RMK A01 T01260082  RH  075%=      5-min Rain = 0
KAI1 110755Z 13006KT 13/08 A3024 RMK A01 T01270083  RH  074%=      5-min Rain = 0
KAI1 110756Z 13006KT 13/08 A3024 RMK A01 T01270082  RH  074%=      5-min Rain = 0
KAI1 110757Z 13006KT 13/08 A3024 RMK A01 T01270082  RH  074%=      5-min Rain = 0
KAI1 110758Z 13006KT 13/08 A3024 RMK A01 T01280081  RH  073%=      5-min Rain = 0
KAI1 110759Z 13006KT 13/08 A3024 RMK A01 T01280081  RH  073%=      5-min Rain = 0
KAI1 110800Z 13006KT 13/08 A3024 RMK A01 T01280083  RH  074%=      5-min Rain = 0
KAI1 110801Z 13006KT 13/08 A3024 RMK A01 T01280083  RH  074%=      5-min Rain = 0
KAI1 110802Z 13006KT 13/08 A3024 RMK A01 T01280083  RH  074%=      5-min Rain = 0
KAI1 110803Z 13007KT 13/08 A3024 RMK A01 T01270083  RH  075%=      5-min Rain = 0
KAI1 110804Z 13007KT 13/08 A3024 RMK A01 T01270084  RH  075%=      5-min Rain = 0
KAI1 110805Z 13007KT 13/08 A3024 RMK A01 T01260084  RH  076%=      5-min Rain = 0
KAI1 110806Z 13007KT 13/08 A3024 RMK A01 T01250084  RH  076%=      5-min Rain = 0
KAI1 110807Z 13007KT 13/08 A3024 RMK A01 T01250084  RH  076%=      5-min Rain = 0
KAI1 110808Z 13006KT 12/09 A3024 RMK A01 T01240085  RH  077%=      5-min Rain = 0
KAI1 110809Z 13006KT 12/09 A3024 RMK A01 T01230085  RH  077%=      5-min Rain = 0
KAI1 110810Z 13006KT 12/09 A3024 RMK A01 T01230085  RH  078%=      5-min Rain = 0
KAI1 110811Z 13006KT 12/09 A3024 RMK A01 T01220085  RH  078%=      5-min Rain = 0
KAI1 110812Z 13006KT 12/09 A3024 RMK A01 T01220086  RH  079%=      5-min Rain = 0
KAI1 110813Z 13006KT 12/09 A3024 RMK A01 T01210086  RH  079%=      5-min Rain = 0
KAI1 110814Z 13006KT 12/09 A3024 RMK A01 T01210086  RH  079%=      5-min Rain = 0
KAI1 110815Z 13006KT 12/09 A3024 RMK A01 T01200086  RH  079%=      5-min Rain = 0
KAI1 110816Z 13006KT 12/09 A3024 RMK A01 T01200086  RH  080%=      5-min Rain = 0
KAI1 110817Z 13006KT 12/09 A3024 RMK A01 T01200086  RH  080%=      5-min Rain = 0
KAI1 110818Z 13006KT 12/09 A3024 RMK A01 T01190086  RH  080%=      5-min Rain = 0
KAI1 110819Z 13006KT 12/09 A3024 RMK A01 T01190086  RH  080%=      5-min Rain = 0
KAI1 110820Z 13006KT 12/09 A3024 RMK A01 T01190086  RH  080%=      5-min Rain = 0
KAI1 110821Z 14006KT 12/09 A3024 RMK A01 T01190086  RH  080%=      5-min Rain = 0
KAI1 110822Z 14006KT 12/09 A3024 RMK A01 T01190085  RH  080%=      5-min Rain = 0
KAI1 110823Z 14006KT 12/09 A3024 RMK A01 T01200085  RH  079%=      5-min Rain = 0
KAI1 110824Z 14006KT 12/09 A3024 RMK A01 T01190085  RH  079%=      5-min Rain = 0
KAI1 110825Z 14006KT 12/08 A3024 RMK A01 T01190084  RH  079%=      5-min Rain = 0
KAI1 110826Z 14006KT 12/08 A3024 RMK A01 T01190084  RH  080%=      5-min Rain = 0
KAI1 110827Z 14006KT 12/08 A3024 RMK A01 T01180084  RH  080%=      5-min Rain = 0
KAI1 110828Z 13006KT 12/09 A3024 RMK A01 T01180085  RH  080%=      5-min Rain = 0
KAI1 110829Z 13006KT 12/08 A3024 RMK A01 T01180084  RH  080%=      5-min Rain = 0
KAI1 110830Z 13006KT 12/09 A3024 RMK A01 T01180085  RH  080%=      5-min Rain = 0
KAI1 110831Z 13006KT 12/08 A3024 RMK A01 T01180084  RH  080%=      5-min Rain = 0
KAI1 110832Z 14006KT 12/08 A3024 RMK A01 T01180084  RH  080%=      5-min Rain = 0
KAI1 110833Z 14006KT 12/08 A3024 RMK A01 T01180084  RH  080%=      5-min Rain = 0
KAI1 110834Z 14006KT 12/09 A3024 RMK A01 T01180085  RH  080%=      5-min Rain = 0
KAI1 110835Z 14006KT 12/09 A3024 RMK A01 T01180085  RH  080%=      5-min Rain = 0
KAI1 110836Z 14006KT 12/09 A3024 RMK A01 T01180085  RH  080%=      5-min Rain = 0
KAI1 110837Z 14006KT 12/09 A3024 RMK A01 T01180085  RH  080%=      5-min Rain = 0
KAI1 110838Z 14006KT 12/09 A3024 RMK A01 T01180085  RH  080%=      5-min Rain = 0
KAI1 110839Z 14006KT 12/09 A3024 RMK A01 T01180085  RH  080%=      5-min Rain = 0
KAI1 110840Z 15006KT 12/09 A3024 RMK A01 T01180085  RH  080%=      5-min Rain = 0
KAI1 110841Z 15006KT 12/08 A3024 RMK A01 T01180084  RH  080%=      5-min Rain = 0
KAI1 110842Z 15006KT 12/08 A3024 RMK A01 T01180084  RH  080%=      5-min Rain = 0
KAI1 110843Z 15006KT 12/08 A3024 RMK A01 T01170084  RH  080%=      5-min Rain = 0
KAI1 110844Z 15006KT 12/08 A3024 RMK A01 T01170083  RH  080%=      5-min Rain = 0
KAI1 110845Z 15006KT 12/08 A3024 RMK A01 T01170083  RH  080%=      5-min Rain = 0
KAI1 110846Z 15006KT 12/08 A3024 RMK A01 T01160083  RH  080%=      5-min Rain = 0
KAI1 110847Z 15006KT 12/08 A3024 RMK A01 T01160083  RH  080%=      5-min Rain = 0
KAI1 110848Z 15005KT 12/08 A3024 RMK A01 T01170083  RH  080%=      5-min Rain = 0
KAI1 110849Z 15005KT 12/08 A3024 RMK A01 T01170084  RH  080%=      5-min Rain = 0
KAI1 110850Z 15005KT 12/09 A3024 RMK A01 T01170085  RH  080%=      5-min Rain = 0
KAI1 110851Z 15005KT 12/09 A3024 RMK A01 T01180085  RH  080%=      5-min Rain = 0
KAI1 110852Z 15005KT 12/08 A3024 RMK A01 T01180083  RH  079%=      5-min Rain = 0
KAI1 110853Z 15005KT 12/08 A3024 RMK A01 T01180083  RH  080%=      5-min Rain = 0
KAI1 110854Z 15005KT 12/08 A3024 RMK A01 T01170084  RH  080%=      5-min Rain = 0
KAI1 110855Z 15004KT 12/08 A3024 RMK A01 T01160083  RH  080%=      5-min Rain = 0
KAI1 110856Z 15004KT 12/08 A3024 RMK A01 T01160083  RH  080%=      5-min Rain = 0
KAI1 110857Z 15004KT 12/08 A3024 RMK A01 T01150083  RH  081%=      5-min Rain = 0
KAI1 110858Z 15004KT 12/08 A3024 RMK A01 T01150083  RH  081%=      5-min Rain = 0
KAI1 110859Z 15004KT 12/08 A3024 RMK A01 T01150083  RH  081%=      5-min Rain = 0
KAI1 110900Z 15004KT 12/08 A3024 RMK A01 T01150083  RH  081%=      5-min Rain = 0
KAI1 110901Z 14004KT 12/08 A3024 RMK A01 T01150083  RH  081%=      5-min Rain = 0
KAI1 110902Z 15004KT 12/08 A3024 RMK A01 T01150083  RH  081%=      5-min Rain = 0
KAI1 110903Z 15004KT 12/08 A3024 RMK A01 T01150084  RH  081%=      5-min Rain = 0
KAI1 110904Z 15004KT 12/08 A3024 RMK A01 T01150083  RH  081%=      5-min Rain = 0
KAI1 110905Z 15004KT 12/08 A3024 RMK A01 T01150083  RH  081%=      5-min Rain = 0
KAI1 110906Z 15004KT 12/08 A3024 RMK A01 T01150083  RH  080%=      5-min Rain = 0
KAI1 110907Z 15004KT 12/08 A3024 RMK A01 T01150083  RH  080%=      5-min Rain = 0
KAI1 110908Z 15004KT 12/08 A3024 RMK A01 T01150082  RH  080%=      5-min Rain = 0
KAI1 110909Z 16004KT 12/08 A3024 RMK A01 T01150083  RH  080%=      5-min Rain = 0
KAI1 110910Z 16003KT 12/08 A3024 RMK A01 T01160083  RH  080%=      5-min Rain = 0
KAI1 110911Z 16004KT 12/08 A3024 RMK A01 T01150082  RH  080%=      5-min Rain = 0
KAI1 110912Z 16004KT 12/08 A3024 RMK A01 T01150082  RH  080%=      5-min Rain = 0
KAI1 110913Z 16004KT 12/08 A3024 RMK A01 T01160082  RH  080%=      5-min Rain = 0
KAI1 110914Z 16004KT 12/08 A3024 RMK A01 T01160082  RH  080%=      5-min Rain = 0
KAI1 110915Z 16004KT 12/08 A3024 RMK A01 T01170083  RH  079%=      5-min Rain = 0
KAI1 110916Z 16004KT 12/08 A3024 RMK A01 T01170083  RH  079%=      5-min Rain = 0
KAI1 110917Z 16004KT 12/08 A3024 RMK A01 T01170083  RH  079%=      5-min Rain = 0
KAI1 110918Z 16003KT 12/08 A3024 RMK A01 T01180083  RH  079%=      5-min Rain = 0
KAI1 110919Z 16003KT 12/08 A3024 RMK A01 T01180084  RH  079%=      5-min Rain = 0
KAI1 110920Z 16003KT 12/08 A3024 RMK A01 T01190084  RH  079%=      5-min Rain = 0
KAI1 110921Z 16003KT 12/08 A3024 RMK A01 T01190084  RH  079%=      5-min Rain = 0
KAI1 110922Z 16003KT 12/08 A3024 RMK A01 T01200084  RH  079%=      5-min Rain = 0
KAI1 110923Z 16003KT 12/08 A3024 RMK A01 T01190084  RH  079%=      5-min Rain = 0
KAI1 110924Z 16003KT 12/08 A3024 RMK A01 T01190084  RH  079%=      5-min Rain = 0
KAI1 110925Z 16003KT 12/08 A3024 RMK A01 T01190083  RH  079%=      5-min Rain = 0
KAI1 110926Z 16003KT 12/08 A3024 RMK A01 T01190084  RH  079%=      5-min Rain = 0
KAI1 110927Z 16003KT 12/09 A3024 RMK A01 T01190085  RH  080%=      5-min Rain = 0
KAI1 110928Z 16003KT 12/09 A3024 RMK A01 T01180085  RH  080%=      5-min Rain = 0
KAI1 110929Z 16003KT 12/09 A3024 RMK A01 T01190086  RH  080%=      5-min Rain = 0
KAI1 110930Z 16003KT 12/09 A3024 RMK A01 T01180086  RH  080%=      5-min Rain = 0
KAI1 110931Z 16003KT 12/09 A3024 RMK A01 T01190086  RH  080%=      5-min Rain = 0
KAI1 110932Z 17003KT 12/09 A3024 RMK A01 T01190086  RH  081%=      5-min Rain = 0
KAI1 110933Z 17003KT 12/09 A3024 RMK A01 T01190086  RH  081%=      5-min Rain = 0
KAI1 110934Z 17003KT 12/09 A3024 RMK A01 T01180085  RH  080%=      5-min Rain = 0
KAI1 110935Z 17003KT 12/09 A3024 RMK A01 T01190087  RH  081%=      5-min Rain = 0
KAI1 110936Z 17003KT 12/09 A3024 RMK A01 T01190087  RH  081%=      5-min Rain = 0
KAI1 110937Z 18003KT 12/09 A3024 RMK A01 T01180087  RH  081%=      5-min Rain = 0
KAI1 110938Z 18003KT 12/09 A3024 RMK A01 T01190087  RH  081%=      5-min Rain = 0
KAI1 110939Z 18003KT 12/09 A3024 RMK A01 T01190087  RH  081%=      5-min Rain = 0
KAI1 110940Z 18003KT 12/09 A3024 RMK A01 T01180087  RH  081%=      5-min Rain = 0
KAI1 110941Z 18003KT 12/09 A3024 RMK A01 T01180086  RH  081%=      5-min Rain = 0
KAI1 110942Z 18003KT 12/09 A3024 RMK A01 T01170085  RH  081%=      5-min Rain = 0
KAI1 110943Z 18003KT 12/08 A3024 RMK A01 T01160084  RH  081%=      5-min Rain = 0
KAI1 110944Z 18002KT 12/08 A3024 RMK A01 T01150084  RH  081%=      5-min Rain = 0
KAI1 110945Z 19002KT 11/08 A3024 RMK A01 T01140083  RH  081%=      5-min Rain = 0
KAI1 110946Z 19002KT 11/08 A3024 RMK A01 T01130082  RH  082%=      5-min Rain = 0
KAI1 110947Z 20003KT 11/08 A3024 RMK A01 T01110082  RH  082%=      5-min Rain = 0
KAI1 110948Z 20003KT 11/08 A3024 RMK A01 T01100082  RH  083%=      5-min Rain = 0
KAI1 110949Z 20003KT 11/08 A3024 RMK A01 T01090082  RH  084%=      5-min Rain = 0
KAI1 110950Z 20003KT 11/08 A3024 RMK A01 T01080082  RH  084%=      5-min Rain = 0
KAI1 110951Z 20003KT 11/08 A3024 RMK A01 T01080082  RH  084%=      5-min Rain = 0
KAI1 110952Z 21003KT 11/08 A3024 RMK A01 T01070081  RH  084%=      5-min Rain = 0
KAI1 110953Z 21003KT 11/08 A3024 RMK A01 T01060081  RH  084%=      5-min Rain = 0
KAI1 110954Z 20003KT 11/08 A3024 RMK A01 T01060081  RH  085%=      5-min Rain = 0
KAI1 110955Z 20002KT 11/08 A3024 RMK A01 T01050081  RH  085%=      5-min Rain = 0
KAI1 110956Z 20002KT 11/08 A3024 RMK A01 T01050082  RH  086%=      5-min Rain = 0
KAI1 110957Z 20002KT 10/08 A3024 RMK A01 T01040081  RH  086%=      5-min Rain = 0
KAI1 110958Z 20002KT 10/08 A3024 RMK A01 T01040082  RH  086%=      5-min Rain = 0
KAI1 110959Z 20002KT 10/08 A3024 RMK A01 T01040082  RH  086%=      5-min Rain = 0
KAI1 111000Z 19002KT 10/08 A3024 RMK A01 T01040082  RH  086%=      5-min Rain = 0
KAI1 111001Z 19002KT 10/08 A3024 RMK A01 T01040082  RH  086%=      5-min Rain = 0
KAI1 111002Z 19002KT 10/08 A3024 RMK A01 T01040082  RH  086%=      5-min Rain = 0
KAI1 111003Z 19002KT 10/08 A3024 RMK A01 T01040082  RH  086%=      5-min Rain = 0
KAI1 111004Z 20002KT 10/08 A3024 RMK A01 T01040082  RH  086%=      5-min Rain = 0
KAI1 111005Z 20002KT 10/08 A3024 RMK A01 T01040082  RH  086%=      5-min Rain = 0
KAI1 111006Z 20002KT 10/08 A3024 RMK A01 T01040082  RH  086%=      5-min Rain = 0
KAI1 111007Z 21002KT 11/08 A3024 RMK A01 T01050082  RH  086%=      5-min Rain = 0
KAI1 111008Z 20002KT 11/08 A3024 RMK A01 T01050083  RH  086%=      5-min Rain = 0
KAI1 111009Z 20002KT 11/08 A3024 RMK A01 T01050082  RH  086%=      5-min Rain = 0
KAI1 111010Z 19002KT 11/08 A3024 RMK A01 T01060082  RH  086%=      5-min Rain = 0
KAI1 111011Z 19002KT 11/08 A3024 RMK A01 T01060083  RH  086%=      5-min Rain = 0
KAI1 111012Z 19003KT 11/08 A3024 RMK A01 T01060083  RH  086%=      5-min Rain = 0
KAI1 111013Z 20003KT 11/08 A3024 RMK A01 T01060082  RH  085%=      5-min Rain = 0
KAI1 111014Z 20003KT 11/08 A3024 RMK A01 T01060083  RH  085%=      5-min Rain = 0
KAI1 111015Z 21003KT 11/08 A3024 RMK A01 T01060082  RH  085%=      5-min Rain = 0
KAI1 111016Z 21002KT 11/08 A3024 RMK A01 T01060082  RH  085%=      5-min Rain = 0
KAI1 111017Z 21002KT 11/08 A3024 RMK A01 T01070083  RH  085%=      5-min Rain = 0
KAI1 111018Z 20002KT 11/08 A3024 RMK A01 T01070082  RH  085%=      5-min Rain = 0
KAI1 111019Z 20002KT 11/08 A3024 RMK A01 T01070082  RH  085%=      5-min Rain = 0
KAI1 111020Z 20002KT 11/08 A3024 RMK A01 T01070081  RH  084%=      5-min Rain = 0
KAI1 111021Z 20001KT 11/08 A3024 RMK A01 T01070081  RH  084%=      5-min Rain = 0
KAI1 111022Z 19001KT 11/08 A3024 RMK A01 T01070082  RH  085%=      5-min Rain = 0
KAI1 111023Z 19001KT 11/08 A3024 RMK A01 T01070081  RH  084%=      5-min Rain = 0
KAI1 111024Z 19002KT 11/08 A3024 RMK A01 T01070081  RH  084%=      5-min Rain = 0
KAI1 111025Z 18001KT 11/08 A3024 RMK A01 T01060080  RH  084%=      5-min Rain = 0
KAI1 111026Z 18001KT 11/08 A3024 RMK A01 T01060081  RH  084%=      5-min Rain = 0
KAI1 111027Z 18001KT 11/08 A3024 RMK A01 T01060080  RH  084%=      5-min Rain = 0
KAI1 111028Z 18001KT 11/08 A3024 RMK A01 T01070081  RH  084%=      5-min Rain = 0
KAI1 111029Z 18002KT 11/08 A3024 RMK A01 T01060080  RH  084%=      5-min Rain = 0
KAI1 111030Z 18002KT 11/08 A3024 RMK A01 T01060080  RH  084%=      5-min Rain = 0
KAI1 111031Z 18002KT 11/08 A3024 RMK A01 T01050080  RH  084%=      5-min Rain = 0
KAI1 111032Z 18002KT 11/08 A3024 RMK A01 T01050079  RH  084%=      5-min Rain = 0
KAI1 111033Z 18002KT 10/08 A3024 RMK A01 T01040079  RH  084%=      5-min Rain = 0
KAI1 111034Z 18002KT 10/08 A3024 RMK A01 T01040079  RH  084%=      5-min Rain = 0
KAI1 111035Z 18001KT 10/08 A3024 RMK A01 T01030078  RH  084%=      5-min Rain = 0
KAI1 111036Z 18002KT 10/08 A3024 RMK A01 T01030078  RH  084%=      5-min Rain = 0
KAI1 111037Z 18002KT 10/08 A3024 RMK A01 T01030078  RH  085%=      5-min Rain = 0
KAI1 111038Z 18001KT 10/08 A3024 RMK A01 T01030078  RH  085%=      5-min Rain = 0
KAI1 111039Z 18001KT 10/08 A3024 RMK A01 T01030078  RH  085%=      5-min Rain = 0
KAI1 111040Z 17001KT 10/08 A3024 RMK A01 T01030078  RH  084%=      5-min Rain = 0
KAI1 111041Z 17001KT 10/08 A3024 RMK A01 T01030078  RH  084%=      5-min Rain = 0
KAI1 111042Z 17001KT 10/08 A3024 RMK A01 T01030078  RH  084%=      5-min Rain = 0
KAI1 111043Z 17001KT 10/08 A3024 RMK A01 T01030078  RH  084%=      5-min Rain = 0
KAI1 111044Z 17001KT 10/08 A3024 RMK A01 T01030078  RH  084%=      5-min Rain = 0
KAI1 111045Z 17001KT 10/08 A3024 RMK A01 T01030078  RH  084%=      5-min Rain = 0
KAI1 111046Z 18001KT 10/08 A3024 RMK A01 T01030078  RH  085%=      5-min Rain = 0
KAI1 111047Z 18001KT 10/08 A3024 RMK A01 T01030078  RH  084%=      5-min Rain = 0
KAI1 111048Z 17001KT 10/08 A3024 RMK A01 T01030078  RH  085%=      5-min Rain = 0
KAI1 111049Z 17001KT 10/08 A3024 RMK A01 T01030078  RH  085%=      5-min Rain = 0
KAI1 111050Z 17001KT 10/08 A3024 RMK A01 T01030079  RH  085%=      5-min Rain = 0
KAI1 111051Z 18001KT 10/08 A3024 RMK A01 T01030079  RH  085%=      5-min Rain = 0
KAI1 111052Z 19001KT 10/08 A3024 RMK A01 T01030079  RH  085%=      5-min Rain = 0
KAI1 111053Z 19001KT 10/08 A3024 RMK A01 T01030078  RH  085%=      5-min Rain = 0
KAI1 111054Z 20001KT 10/08 A3024 RMK A01 T01030078  RH  085%=      5-min Rain = 0
KAI1 111055Z 21001KT 10/08 A3024 RMK A01 T01030079  RH  085%=      5-min Rain = 0
KAI1 111056Z 21001KT 10/08 A3024 RMK A01 T01030078  RH  084%=      5-min Rain = 0
KAI1 111057Z 22001KT 10/08 A3024 RMK A01 T01040079  RH  084%=      5-min Rain = 0
KAI1 111058Z 22001KT 11/08 A3024 RMK A01 T01050079  RH  084%=      5-min Rain = 0
KAI1 111059Z 22001KT 11/08 A3024 RMK A01 T01050080  RH  085%=      5-min Rain = 0
KAI1 111100Z 23001KT 11/08 A3024 RMK A01 T01050081  RH  085%=      5-min Rain = 0
KAI1 111101Z 24001KT 11/08 A3024 RMK A01 T01050081  RH  085%=      5-min Rain = 0
KAI1 111102Z 25001KT 11/08 A3024 RMK A01 T01050080  RH  085%=      5-min Rain = 0
KAI1 111103Z 26001KT 11/08 A3024 RMK A01 T01050081  RH  085%=      5-min Rain = 0
KAI1 111104Z 26001KT 11/08 A3024 RMK A01 T01050081  RH  085%=      5-min Rain = 0
KAI1 111105Z 26001KT 11/08 A3024 RMK A01 T01050081  RH  085%=      5-min Rain = 0
KAI1 111106Z 26001KT 11/08 A3024 RMK A01 T01050081  RH  085%=      5-min Rain = 0
KAI1 111107Z 26001KT 11/08 A3024 RMK A01 T01050081  RH  085%=      5-min Rain = 0
KAI1 111108Z 26001KT 11/08 A3024 RMK A01 T01050081  RH  085%=      5-min Rain = 0
KAI1 111109Z 26001KT 11/08 A3024 RMK A01 T01050080  RH  085%=      5-min Rain = 0
KAI1 111110Z 26001KT 11/08 A3024 RMK A01 T01050080  RH  085%=      5-min Rain = 0
KAI1 111111Z 26001KT 11/08 A3024 RMK A01 T01050080  RH  085%=      5-min Rain = 0
KAI1 111112Z 27001KT 11/08 A3024 RMK A01 T01050080  RH  084%=      5-min Rain = 0
KAI1 111113Z 27001KT 11/08 A3024 RMK A01 T01060080  RH  084%=      5-min Rain = 0
KAI1 111114Z 27001KT 11/08 A3024 RMK A01 T01060080  RH  084%=      5-min Rain = 0
KAI1 111115Z 28001KT 11/08 A3024 RMK A01 T01060080  RH  084%=      5-min Rain = 0
KAI1 111116Z 27001KT 11/08 A3024 RMK A01 T01060080  RH  084%=      5-min Rain = 0
KAI1 111117Z 27001KT 11/08 A3024 RMK A01 T01060080  RH  084%=      5-min Rain = 0
KAI1 111118Z 28001KT 11/08 A3024 RMK A01 T01060080  RH  084%=      5-min Rain = 0
KAI1 111119Z 28002KT 11/08 A3024 RMK A01 T01060080  RH  084%=      5-min Rain = 0
KAI1 111120Z 28001KT 11/08 A3024 RMK A01 T01050080  RH  084%=      5-min Rain = 0
KAI1 111121Z 28001KT 11/08 A3024 RMK A01 T01050080  RH  084%=      5-min Rain = 0
KAI1 111122Z 27001KT 11/08 A3024 RMK A01 T01050080  RH  084%=      5-min Rain = 0
KAI1 111123Z 27001KT 11/08 A3024 RMK A01 T01050080  RH  084%=      5-min Rain = 0
KAI1 111124Z 27001KT 10/08 A3024 RMK A01 T01040079  RH  084%=      5-min Rain = 0
KAI1 111125Z 27002KT 10/08 A3024 RMK A01 T01040079  RH  084%=      5-min Rain = 0
KAI1 111126Z 27002KT 10/08 A3024 RMK A01 T01040079  RH  085%=      5-min Rain = 0
KAI1 111127Z 27002KT 10/08 A3024 RMK A01 T01040079  RH  085%=      5-min Rain = 0
KAI1 111128Z 28002KT 10/08 A3024 RMK A01 T01040079  RH  085%=      5-min Rain = 0
KAI1 111129Z 27002KT 10/08 A3024 RMK A01 T01040079  RH  085%=      5-min Rain = 0
KAI1 111130Z 27002KT 10/08 A3024 RMK A01 T01030078  RH  085%=      5-min Rain = 0
KAI1 111131Z 27002KT 10/08 A3024 RMK A01 T01020078  RH  085%=      5-min Rain = 0
KAI1 111132Z 27003KT 10/08 A3024 RMK A01 T01020078  RH  086%=      5-min Rain = 0
KAI1 111133Z 27003KT 10/08 A3024 RMK A01 T01020079  RH  086%=      5-min Rain = 0
KAI1 111134Z 27003KT 10/08 A3024 RMK A01 T01010080  RH  087%=      5-min Rain = 0
KAI1 111135Z 27003KT 10/08 A3024 RMK A01 T01010079  RH  087%=      5-min Rain = 0
KAI1 111136Z 27003KT 10/08 A3024 RMK A01 T00990078  RH  086%=      5-min Rain = 0
KAI1 111137Z 27003KT 10/08 A3024 RMK A01 T00980077  RH  087%=      5-min Rain = 0
KAI1 111138Z 27003KT 10/08 A3024 RMK A01 T00970077  RH  087%=      5-min Rain = 0
KAI1 111139Z 27003KT 10/08 A3024 RMK A01 T00960076  RH  087%=      5-min Rain = 0
KAI1 111140Z 27003KT 10/08 A3024 RMK A01 T00960076  RH  088%=      5-min Rain = 0
KAI1 111141Z 27003KT 10/08 A3024 RMK A01 T00950076  RH  088%=      5-min Rain = 0
KAI1 111142Z 26003KT 10/08 A3024 RMK A01 T00950077  RH  089%=      5-min Rain = 0
KAI1 111143Z 26003KT 10/08 A3024 RMK A01 T00950078  RH  089%=      5-min Rain = 0
KAI1 111144Z 26003KT 10/08 A3024 RMK A01 T00950077  RH  088%=      5-min Rain = 0
KAI1 111145Z 25003KT 10/08 A3024 RMK A01 T00950077  RH  089%=      5-min Rain = 0
KAI1 111146Z 25002KT 10/08 A3024 RMK A01 T00960078  RH  089%=      5-min Rain = 0
KAI1 111147Z 25002KT 10/08 A3024 RMK A01 T00960077  RH  088%=      5-min Rain = 0
KAI1 111148Z 25002KT 10/08 A3024 RMK A01 T00960077  RH  088%=      5-min Rain = 0
KAI1 111149Z 25002KT 10/08 A3024 RMK A01 T00960077  RH  088%=      5-min Rain = 0
KAI1 111150Z 25002KT 10/08 A3024 RMK A01 T00960078  RH  088%=      5-min Rain = 0
KAI1 111151Z 25002KT 10/08 A3025 RMK A01 T00960078  RH  089%=      5-min Rain = 0
KAI1 111152Z 25002KT 10/08 A3025 RMK A01 T00960079  RH  089%=      5-min Rain = 0
KAI1 111153Z 25002KT 10/08 A3025 RMK A01 T00970080  RH  089%=      5-min Rain = 0
KAI1 111154Z 25002KT 10/08 A3025 RMK A01 T00990081  RH  089%=      5-min Rain = 0
KAI1 111155Z 25002KT 10/08 A3025 RMK A01 T01000082  RH  088%=      5-min Rain = 0
KAI1 111156Z 26002KT 10/08 A3025 RMK A01 T01010082  RH  088%=      5-min Rain = 0
KAI1 111157Z 26002KT 10/08 A3025 RMK A01 T01020082  RH  087%=      5-min Rain = 0
KAI1 111158Z 26002KT 10/08 A3025 RMK A01 T01020081  RH  087%=      5-min Rain = 0
KAI1 111159Z 26002KT 10/08 A3025 RMK A01 T01020081  RH  087%=      5-min Rain = 0
KAI1 111200Z 26002KT 10/08 A3025 RMK A01 T01030082  RH  087%=      5-min Rain = 0
KAI1 111201Z 27002KT 10/08 A3025 RMK A01 T01030082  RH  086%=      5-min Rain = 0
KAI1 111202Z 27002KT 10/08 A3025 RMK A01 T01030081  RH  086%=      5-min Rain = 0
KAI1 111203Z 27003KT 10/08 A3025 RMK A01 T01030081  RH  086%=      5-min Rain = 0
KAI1 111204Z 27003KT 10/08 A3025 RMK A01 T01030081  RH  086%=      5-min Rain = 0
KAI1 111205Z 27003KT 10/08 A3025 RMK A01 T01030080  RH  086%=      5-min Rain = 0
KAI1 111206Z 27003KT 10/08 A3025 RMK A01 T01030080  RH  086%=      5-min Rain = 0
KAI1 111207Z 27003KT 10/08 A3025 RMK A01 T01030081  RH  086%=      5-min Rain = 0
KAI1 111208Z 27003KT 10/08 A3025 RMK A01 T01030080  RH  086%=      5-min Rain = 0
KAI1 111209Z 27003KT 10/08 A3025 RMK A01 T01020080  RH  086%=      5-min Rain = 0
KAI1 111210Z 27002KT 10/08 A3025 RMK A01 T01020080  RH  086%=      5-min Rain = 0
KAI1 111211Z 27002KT 10/08 A3025 RMK A01 T01020079  RH  086%=      5-min Rain = 0
KAI1 111212Z 27003KT 10/08 A3025 RMK A01 T01020079  RH  086%=      5-min Rain = 0
KAI1 111213Z 27003KT 10/08 A3025 RMK A01 T01020080  RH  086%=      5-min Rain = 0
KAI1 111214Z 27003KT 10/08 A3025 RMK A01 T01020079  RH  086%=      5-min Rain = 0
KAI1 111215Z 26002KT 10/08 A3025 RMK A01 T01010080  RH  086%=      5-min Rain = 0
KAI1 111216Z 26003KT 10/08 A3025 RMK A01 T01010079  RH  086%=      5-min Rain = 0
KAI1 111217Z 26003KT 10/08 A3025 RMK A01 T01010080  RH  087%=      5-min Rain = 0
KAI1 111218Z 27003KT 10/08 A3025 RMK A01 T01020081  RH  087%=      5-min Rain = 0
KAI1 111219Z 27003KT 10/08 A3025 RMK A01 T01020080  RH  086%=      5-min Rain = 0
KAI1 111220Z 27003KT 10/08 A3025 RMK A01 T01020081  RH  087%=      5-min Rain = 0
KAI1 111221Z 26003KT 10/08 A3025 RMK A01 T01030081  RH  087%=      5-min Rain = 0
KAI1 111222Z 26003KT 10/08 A3025 RMK A01 T01030081  RH  087%=      5-min Rain = 0
KAI1 111223Z 26003KT 10/08 A3025 RMK A01 T01030081  RH  087%=      5-min Rain = 0
KAI1 111224Z 26003KT 10/08 A3025 RMK A01 T01020081  RH  086%=      5-min Rain = 0
KAI1 111225Z 26003KT 10/08 A3025 RMK A01 T01030081  RH  087%=      5-min Rain = 0
KAI1 111226Z 26003KT 10/08 A3025 RMK A01 T01030081  RH  087%=      5-min Rain = 0
KAI1 111227Z 26003KT 10/08 A3025 RMK A01 T01030081  RH  086%=      5-min Rain = 0
KAI1 111228Z 26003KT 10/08 A3025 RMK A01 T01030081  RH  086%=      5-min Rain = 0
KAI1 111229Z 26003KT 10/08 A3025 RMK A01 T01020080  RH  086%=      5-min Rain = 0
KAI1 111230Z 26003KT 10/08 A3025 RMK A01 T01020080  RH  086%=      5-min Rain = 0
KAI1 111231Z 26003KT 10/08 A3025 RMK A01 T01020081  RH  087%=      5-min Rain = 0
KAI1 111232Z 26003KT 10/08 A3025 RMK A01 T01020081  RH  087%=      5-min Rain = 0
KAI1 111233Z 26003KT 10/08 A3025 RMK A01 T01020081  RH  087%=      5-min Rain = 0
KAI1 111234Z 26003KT 10/08 A3025 RMK A01 T01020081  RH  087%=      5-min Rain = 0
KAI1 111235Z 26003KT 10/08 A3025 RMK A01 T01020081  RH  087%=      5-min Rain = 0
KAI1 111236Z 27003KT 10/08 A3025 RMK A01 T01020082  RH  087%=      5-min Rain = 0
KAI1 111237Z 27003KT 10/08 A3025 RMK A01 T01030082  RH  087%=      5-min Rain = 0
KAI1 111238Z 27003KT 10/08 A3025 RMK A01 T01020081  RH  087%=      5-min Rain = 0
KAI1 111239Z 28003KT 10/08 A3025 RMK A01 T01030082  RH  087%=      5-min Rain = 0
KAI1 111240Z 28003KT 10/08 A3025 RMK A01 T01030082  RH  086%=      5-min Rain = 0
KAI1 111241Z 27003KT 10/08 A3025 RMK A01 T01040082  RH  086%=      5-min Rain = 0
KAI1 111242Z 27002KT 10/08 A3025 RMK A01 T01040082  RH  086%=      5-min Rain = 0
KAI1 111243Z 27002KT 11/08 A3025 RMK A01 T01050081  RH  085%=      5-min Rain = 0
KAI1 111244Z 26002KT 11/08 A3025 RMK A01 T01050082  RH  085%=      5-min Rain = 0
KAI1 111245Z 27002KT 11/08 A3025 RMK A01 T01060082  RH  085%=      5-min Rain = 0
KAI1 111246Z 27002KT 11/08 A3025 RMK A01 T01070083  RH  085%=      5-min Rain = 0
KAI1 111247Z 27003KT 11/08 A3025 RMK A01 T01070084  RH  085%=      5-min Rain = 0
KAI1 111248Z 27003KT 11/08 A3025 RMK A01 T01080083  RH  085%=      5-min Rain = 0
KAI1 111249Z 27003KT 11/08 A3025 RMK A01 T01080083  RH  084%=      5-min Rain = 0
KAI1 111250Z 27003KT 11/08 A3025 RMK A01 T01080083  RH  084%=      5-min Rain = 0
KAI1 111251Z 27003KT 11/08 A3025 RMK A01 T01080083  RH  085%=      5-min Rain = 0
KAI1 111252Z 27003KT 11/08 A3025 RMK A01 T01090083  RH  084%=      5-min Rain = 0
KAI1 111253Z 27003KT 11/08 A3025 RMK A01 T01090083  RH  084%=      5-min Rain = 0
KAI1 111254Z 27003KT 11/08 A3025 RMK A01 T01090083  RH  084%=      5-min Rain = 0
KAI1 111255Z 27003KT 11/08 A3025 RMK A01 T01100084  RH  084%=      5-min Rain = 0
KAI1 111256Z 27003KT 11/08 A3025 RMK A01 T01100084  RH  084%=      5-min Rain = 0
KAI1 111257Z 27003KT 11/08 A3025 RMK A01 T01110084  RH  084%=      5-min Rain = 0
KAI1 111258Z 27003KT 11/09 A3026 RMK A01 T01110085  RH  084%=      5-min Rain = 0
KAI1 111259Z 27003KT 11/09 A3026 RMK A01 T01110085  RH  084%=      5-min Rain = 0
KAI1 111300Z 27003KT 11/09 A3026 RMK A01 T01120086  RH  084%=      5-min Rain = 0
KAI1 111301Z 27003KT 11/09 A3026 RMK A01 T01120086  RH  084%=      5-min Rain = 0
KAI1 111302Z 27003KT 11/09 A3026 RMK A01 T01120086  RH  084%=      5-min Rain = 0
KAI1 111303Z 27003KT 11/09 A3026 RMK A01 T01130087  RH  084%=      5-min Rain = 0
KAI1 111304Z 27003KT 11/09 A3026 RMK A01 T01130087  RH  084%=      5-min Rain = 0
KAI1 111305Z 27003KT 11/09 A3026 RMK A01 T01130088  RH  084%=      5-min Rain = 0
KAI1 111306Z 27003KT 11/09 A3026 RMK A01 T01140089  RH  085%=      5-min Rain = 0
KAI1 111307Z 27004KT 11/09 A3026 RMK A01 T01140089  RH  085%=      5-min Rain = 0
KAI1 111308Z 27004KT 12/09 A3026 RMK A01 T01150090  RH  085%=      5-min Rain = 0
KAI1 111309Z 27003KT 12/09 A3025 RMK A01 T01150091  RH  085%=      5-min Rain = 0
KAI1 111310Z 27003KT 12/09 A3025 RMK A01 T01160091  RH  085%=      5-min Rain = 0
KAI1 111311Z 27003KT 12/09 A3025 RMK A01 T01170092  RH  084%=      5-min Rain = 0
KAI1 111312Z 27003KT 12/09 A3026 RMK A01 T01180093  RH  085%=      5-min Rain = 0
KAI1 111313Z 28003KT 12/09 A3026 RMK A01 T01180093  RH  084%=      5-min Rain = 0
KAI1 111314Z 28003KT 12/09 A3026 RMK A01 T01190093  RH  084%=      5-min Rain = 0
KAI1 111315Z 28003KT 12/09 A3026 RMK A01 T01200093  RH  084%=      5-min Rain = 0
KAI1 111316Z 28003KT 12/09 A3026 RMK A01 T01210093  RH  083%=      5-min Rain = 0
KAI1 111317Z 28003KT 12/09 A3025 RMK A01 T01220093  RH  082%=      5-min Rain = 0
KAI1 111318Z 27003KT 12/09 A3025 RMK A01 T01220092  RH  082%=      5-min Rain = 0
KAI1 111319Z 28003KT 12/09 A3025 RMK A01 T01220091  RH  081%=      5-min Rain = 0
KAI1 111320Z 27003KT 12/09 A3025 RMK A01 T01230092  RH  082%=      5-min Rain = 0
KAI1 111321Z 27003KT 12/09 A3025 RMK A01 T01240093  RH  082%=      5-min Rain = 0
KAI1 111322Z 27003KT 12/09 A3025 RMK A01 T01240094  RH  082%=      5-min Rain = 0
KAI1 111323Z 27003KT 13/10 A3025 RMK A01 T01250095  RH  082%=      5-min Rain = 0
KAI1 111324Z 27003KT 13/10 A3025 RMK A01 T01270095  RH  081%=      5-min Rain = 0
KAI1 111325Z 27003KT 13/10 A3025 RMK A01 T01270095  RH  081%=      5-min Rain = 0
KAI1 111326Z 27003KT 13/09 A3025 RMK A01 T01270093  RH  079%=      5-min Rain = 0
KAI1 111327Z 27003KT 13/09 A3025 RMK A01 T01280094  RH  080%=      5-min Rain = 0
KAI1 111328Z 27003KT 13/10 A3025 RMK A01 T01290096  RH  081%=      5-min Rain = 0
KAI1 111329Z 26003KT 13/09 A3025 RMK A01 T01290094  RH  079%=      5-min Rain = 0
KAI1 111330Z 27003KT 13/10 A3025 RMK A01 T01290095  RH  079%=      5-min Rain = 0
KAI1 111331Z 27003KT 13/10 A3025 RMK A01 T01300096  RH  080%=      5-min Rain = 0
KAI1 111332Z 26003KT 13/10 A3025 RMK A01 T01310096  RH  080%=      5-min Rain = 0
KAI1 111333Z 26003KT 13/10 A3025 RMK A01 T01310095  RH  079%=      5-min Rain = 0
KAI1 111334Z 26003KT 13/10 A3025 RMK A01 T01310096  RH  079%=      5-min Rain = 0
KAI1 111335Z 27003KT 13/10 A3025 RMK A01 T01310096  RH  080%=      5-min Rain = 0
KAI1 111336Z 27002KT 13/10 A3025 RMK A01 T01320098  RH  080%=      5-min Rain = 0
KAI1 111337Z 26003KT 13/10 A3025 RMK A01 T01320097  RH  079%=      5-min Rain = 0
KAI1 111338Z 26003KT 13/10 A3025 RMK A01 T01320097  RH  079%=      5-min Rain = 0
KAI1 111339Z 27002KT 13/10 A3026 RMK A01 T01330098  RH  080%=      5-min Rain = 0
KAI1 111340Z 26003KT 13/10 A3026 RMK A01 T01330098  RH  079%=      5-min Rain = 0
KAI1 111341Z 27003KT 13/10 A3026 RMK A01 T01340098  RH  079%=      5-min Rain = 0
KAI1 111342Z 27003KT 13/10 A3026 RMK A01 T01340098  RH  078%=      5-min Rain = 0
KAI1 111343Z 26003KT 14/10 A3026 RMK A01 T01350099  RH  079%=      5-min Rain = 0
KAI1 111344Z 27003KT 14/10 A3026 RMK A01 T01360100  RH  079%=      5-min Rain = 0
KAI1 111345Z 26003KT 14/10 A3026 RMK A01 T01370098  RH  078%=      5-min Rain = 0
KAI1 111346Z 26003KT 14/10 A3026 RMK A01 T01370099  RH  078%=      5-min Rain = 0
KAI1 111347Z 26003KT 14/10 A3026 RMK A01 T01380101  RH  078%=      5-min Rain = 0
KAI1 111348Z 27003KT 14/10 A3026 RMK A01 T01390102  RH  078%=      5-min Rain = 0
KAI1 111349Z 26003KT 14/10 A3026 RMK A01 T01410102  RH  077%=      5-min Rain = 0
KAI1 111350Z 26003KT 14/10 A3026 RMK A01 T01410101  RH  077%=      5-min Rain = 0
KAI1 111351Z 26004KT 14/10 A3026 RMK A01 T01420102  RH  077%=      5-min Rain = 0
KAI1 111352Z 26003KT 14/10 A3026 RMK A01 T01430102  RH  076%=      5-min Rain = 0
KAI1 111353Z 24003KT 14/10 A3026 RMK A01 T01430102  RH  076%=      5-min Rain = 0
KAI1 111354Z 25003KT 14/11 A3026 RMK A01 T01440105  RH  077%=      5-min Rain = 0
KAI1 111355Z 25003KT 15/11 A3026 RMK A01 T01450106  RH  077%=      5-min Rain = 0
KAI1 111356Z 25004KT 15/11 A3026 RMK A01 T01450105  RH  077%=      5-min Rain = 0
KAI1 111357Z 25003KT 15/11 A3026 RMK A01 T01450107  RH  078%=      5-min Rain = 0
KAI1 111358Z 25002KT 15/11 A3026 RMK A01 T01460107  RH  077%=      5-min Rain = 0
KAI1 111359Z 25003KT 15/11 A3026 RMK A01 T01480108  RH  077%=      5-min Rain = 0
KAI1 111400Z 25003KT 15/11 A3026 RMK A01 T01490109  RH  077%=      5-min Rain = 0
KAI1 111401Z 25003KT 15/11 A3026 RMK A01 T01500110  RH  077%=      5-min Rain = 0
KAI1 111402Z 25002KT 15/11 A3026 RMK A01 T01520112  RH  077%=      5-min Rain = 0
KAI1 111403Z 25003KT 15/11 A3026 RMK A01 T01540111  RH  076%=      5-min Rain = 0
KAI1 111404Z 25003KT 16/11 A3026 RMK A01 T01550108  RH  074%=      5-min Rain = 0
KAI1 111405Z 25004KT 16/11 A3026 RMK A01 T01560108  RH  073%=      5-min Rain = 0
KAI1 111406Z 25003KT 16/11 A3026 RMK A01 T01570109  RH  073%=      5-min Rain = 0
KAI1 111407Z 25004KT 16/11 A3026 RMK A01 T01570108  RH  073%=      5-min Rain = 0
KAI1 111408Z 25003KT 16/11 A3026 RMK A01 T01580107  RH  072%=      5-min Rain = 0
KAI1 111409Z 25004KT 16/11 A3026 RMK A01 T01590108  RH  071%=      5-min Rain = 0
KAI1 111410Z 25003KT 16/11 A3026 RMK A01 T01600107  RH  071%=      5-min Rain = 0
KAI1 111411Z 25004KT 16/11 A3026 RMK A01 T01600107  RH  070%=      5-min Rain = 0
KAI1 111412Z 25004KT 16/11 A3026 RMK A01 T01610105  RH  069%=      5-min Rain = 0
KAI1 111413Z 25004KT 16/11 A3026 RMK A01 T01620105  RH  069%=      5-min Rain = 0
KAI1 111414Z 25004KT 16/11 A3026 RMK A01 T01620105  RH  069%=      5-min Rain = 0
KAI1 111415Z 25003KT 16/10 A3026 RMK A01 T01630104  RH  068%=      5-min Rain = 0
KAI1 111416Z 25003KT 16/11 A3026 RMK A01 T01640107  RH  069%=      5-min Rain = 0
KAI1 111417Z 24003KT 17/11 A3026 RMK A01 T01650107  RH  068%=      5-min Rain = 0
KAI1 111418Z 25003KT 17/11 A3026 RMK A01 T01670108  RH  068%=      5-min Rain = 0
KAI1 111419Z 24003KT 17/11 A3026 RMK A01 T01680106  RH  067%=      5-min Rain = 0
KAI1 111420Z 24003KT 17/11 A3026 RMK A01 T01680107  RH  067%=      5-min Rain = 0
KAI1 111421Z 25004KT 17/11 A3026 RMK A01 T01700107  RH  066%=      5-min Rain = 0
KAI1 111422Z 24004KT 17/11 A3026 RMK A01 T01710107  RH  066%=      5-min Rain = 0
KAI1 111423Z 24004KT 17/11 A3026 RMK A01 T01720105  RH  065%=      5-min Rain = 0
KAI1 111424Z 25004KT 17/11 A3026 RMK A01 T01720107  RH  066%=      5-min Rain = 0
KAI1 111425Z 25005KT 17/11 A3026 RMK A01 T01720106  RH  065%=      5-min Rain = 0
KAI1 111426Z 25004KT 17/11 A3026 RMK A01 T01730105  RH  065%=      5-min Rain = 0
KAI1 111427Z 25004KT 17/10 A3026 RMK A01 T01730104  RH  064%=      5-min Rain = 0
KAI1 111428Z 25004KT 17/10 A3026 RMK A01 T01730104  RH  064%=      5-min Rain = 0
KAI1 111429Z 25005KT 17/11 A3026 RMK A01 T01740105  RH  064%=      5-min Rain = 0
KAI1 111430Z 25004KT 17/11 A3026 RMK A01 T01740107  RH  065%=      5-min Rain = 0
KAI1 111431Z 25004KT 18/11 A3026 RMK A01 T01760108  RH  064%=      5-min Rain = 0
KAI1 111432Z 26004KT 18/11 A3026 RMK A01 T01760107  RH  064%=      5-min Rain = 0
KAI1 111433Z 23004KT 18/11 A3026 RMK A01 T01780109  RH  064%=      5-min Rain = 0
KAI1 111434Z 25005KT 18/11 A3026 RMK A01 T01800109  RH  063%=      5-min Rain = 0
KAI1 111435Z 25005KT 18/11 A3026 RMK A01 T01810105  RH  061%=      5-min Rain = 0
KAI1 111436Z 25005KT 18/11 A3026 RMK A01 T01810106  RH  062%=      5-min Rain = 0
KAI1 111437Z 24005KT 18/11 A3026 RMK A01 T01820108  RH  062%=      5-min Rain = 0
KAI1 111438Z 25005KT 18/11 A3026 RMK A01 T01830108  RH  062%=      5-min Rain = 0
KAI1 111439Z 25003KT 18/11 A3026 RMK A01 T01830109  RH  062%=      5-min Rain = 0
KAI1 111440Z 25005KT 19/11 A3026 RMK A01 T01850111  RH  062%=      5-min Rain = 0
KAI1 111441Z 24004KT 19/11 A3026 RMK A01 T01860107  RH  060%=      5-min Rain = 0
KAI1 111442Z 26003KT 19/11 A3026 RMK A01 T01860109  RH  061%=      5-min Rain = 0
KAI1 111443Z 25005KT 19/11 A3026 RMK A01 T01880108  RH  060%=      5-min Rain = 0
KAI1 111444Z 26004KT 19/11 A3026 RMK A01 T01880109  RH  060%=      5-min Rain = 0
KAI1 111445Z 25004KT 19/11 A3026 RMK A01 T01880111  RH  061%=      5-min Rain = 0
KAI1 111446Z 25005KT 19/11 A3026 RMK A01 T01900110  RH  060%=      5-min Rain = 0
KAI1 111447Z 26004KT 19/11 A3026 RMK A01 T01900110  RH  060%=      5-min Rain = 0
KAI1 111448Z 26006KT 19/11 A3026 RMK A01 T01920108  RH  058%=      5-min Rain = 0
KAI1 111449Z 25006KT 19/11 A3026 RMK A01 T01930106  RH  057%=      5-min Rain = 0
KAI1 111450Z 24006KT 19/11 A3026 RMK A01 T01940105  RH  057%=      5-min Rain = 0
KAI1 111451Z 25005KT 19/11 A3026 RMK A01 T01940105  RH  056%=      5-min Rain = 0
KAI1 111452Z 26005KT 19/11 A3026 RMK A01 T01930107  RH  057%=      5-min Rain = 0
KAI1 111453Z 26004KT 19/11 A3026 RMK A01 T01930110  RH  058%=      5-min Rain = 0
KAI1 111454Z 25006KT 20/11 A3026 RMK A01 T01950110  RH  058%=      5-min Rain = 0
KAI1 111455Z 25006KT 20/11 A3026 RMK A01 T01960108  RH  057%=      5-min Rain = 0
KAI1 111456Z 25004KT 20/11 A3026 RMK A01 T01970111  RH  057%=      5-min Rain = 0
KAI1 111457Z 24007KT 20/11 A3026 RMK A01 T01990111  RH  057%=      5-min Rain = 0
KAI1 111458Z 25007KT 20/11 A3026 RMK A01 T02000107  RH  055%=      5-min Rain = 0
KAI1 111459Z 23006KT 20/11 A3026 RMK A01 T02020109  RH  055%=      5-min Rain = 0
KAI1 111500Z 24005KT 21/11 A3026 RMK A01 T02050110  RH  055%=      5-min Rain = 0
KAI1 111501Z 23007KT 21/11 A3026 RMK A01 T02070110  RH  054%=      5-min Rain = 0
KAI1 111502Z 23008KT 21/11 A3026 RMK A01 T02070108  RH  053%=      5-min Rain = 0
KAI1 111503Z 23007KT 21/11 A3026 RMK A01 T02060107  RH  053%=      5-min Rain = 0
KAI1 111504Z 23008KT 21/11 A3026 RMK A01 T02050109  RH  054%=      5-min Rain = 0
KAI1 111505Z 22009KT 21/11 A3026 RMK A01 T02060108  RH  053%=      5-min Rain = 0
KAI1 111506Z 23007KT 21/11 A3026 RMK A01 T02060107  RH  053%=      5-min Rain = 0
KAI1 111507Z 24008KT 21/11 A3026 RMK A01 T02070109  RH  053%=      5-min Rain = 0
KAI1 111508Z 24007KT 21/11 A3026 RMK A01 T02080108  RH  053%=      5-min Rain = 0
KAI1 111509Z 22009KT 21/11 A3026 RMK A01 T02090110  RH  053%=      5-min Rain = 0
KAI1 111510Z 23007KT 21/11 A3026 RMK A01 T02100108  RH  052%=      5-min Rain = 0
KAI1 111511Z 23008KT 21/11 A3026 RMK A01 T02100108  RH  052%=      5-min Rain = 0
KAI1 111512Z 23008KT 21/11 A3026 RMK A01 T02110110  RH  052%=      5-min Rain = 0
KAI1 111513Z 24007KT 21/11 A3026 RMK A01 T02120108  RH  051%=      5-min Rain = 0
KAI1 111514Z 24008KT 21/11 A3026 RMK A01 T02110108  RH  051%=      5-min Rain = 0
KAI1 111515Z 24009KT 21/11 A3026 RMK A01 T02120108  RH  051%=      5-min Rain = 0
KAI1 111516Z 24006KT 21/11 A3026 RMK A01 T02110106  RH  051%=      5-min Rain = 0
KAI1 111517Z 23007KT 21/11 A3026 RMK A01 T02110109  RH  052%=      5-min Rain = 0
KAI1 111518Z 24007KT 21/11 A3026 RMK A01 T02130109  RH  051%=      5-min Rain = 0
KAI1 111519Z 25008KT 21/11 A3026 RMK A01 T02140107  RH  051%=      5-min Rain = 0
KAI1 111520Z 24006KT 21/11 A3026 RMK A01 T02130107  RH  051%=      5-min Rain = 0
KAI1 111521Z 26008KT 21/11 A3026 RMK A01 T02110109  RH  052%=      5-min Rain = 0
KAI1 111522Z 25008KT 21/11 A3026 RMK A01 T02120108  RH  051%=      5-min Rain = 0
KAI1 111523Z 26007KT 21/11 A3026 RMK A01 T02130108  RH  051%=      5-min Rain = 0
KAI1 111524Z 24006KT 21/11 A3026 RMK A01 T02140112  RH  052%=      5-min Rain = 0
KAI1 111525Z 26007KT 22/11 A3026 RMK A01 T02170113  RH  052%=      5-min Rain = 0
KAI1 111526Z 26007KT 22/11 A3026 RMK A01 T02180109  RH  050%=      5-min Rain = 0
KAI1 111527Z 26008KT 22/11 A3026 RMK A01 T02180110  RH  050%=      5-min Rain = 0
KAI1 111528Z 26009KT 22/11 A3026 RMK A01 T02170109  RH  050%=      5-min Rain = 0
KAI1 111529Z 25009KT 22/11 A3026 RMK A01 T02180111  RH  051%=      5-min Rain = 0
KAI1 111530Z 25010KT 22/11 A3026 RMK A01 T02190109  RH  050%=      5-min Rain = 0
KAI1 111531Z 26010KT 22/11 A3026 RMK A01 T02190108  RH  049%=      5-min Rain = 0
KAI1 111532Z 25009KT 22/11 A3026 RMK A01 T02190109  RH  050%=      5-min Rain = 0
KAI1 111533Z 26008KT 22/11 A3026 RMK A01 T02190107  RH  049%=      5-min Rain = 0
KAI1 111534Z 25008KT 22/11 A3026 RMK A01 T02200110  RH  050%=      5-min Rain = 0
KAI1 111535Z 24010KT 22/11 A3026 RMK A01 T02210109  RH  049%=      5-min Rain = 0
KAI1 111536Z 25007KT 22/11 A3026 RMK A01 T02210108  RH  049%=      5-min Rain = 0
KAI1 111537Z 26009KT 22/11 A3026 RMK A01 T02210110  RH  049%=      5-min Rain = 0
KAI1 111538Z 25009KT 22/11 A3026 RMK A01 T02210108  RH  049%=      5-min Rain = 0
KAI1 111539Z 25009KT 22/11 A3026 RMK A01 T02230109  RH  049%=      5-min Rain = 0
KAI1 111540Z 25009KT 22/11 A3026 RMK A01 T02230106  RH  048%=      5-min Rain = 0
KAI1 111541Z 25009KT 22/11 A3026 RMK A01 T02230107  RH  048%=      5-min Rain = 0
KAI1 111542Z 26010KT 22/11 A3026 RMK A01 T02240108  RH  048%=      5-min Rain = 0
KAI1 111543Z 25008KT 22/11 A3026 RMK A01 T02230109  RH  048%=      5-min Rain = 0
KAI1 111544Z 23009KT 22/11 A3026 RMK A01 T02230109  RH  048%=      5-min Rain = 0
KAI1 111545Z 24009KT 22/11 A3026 RMK A01 T02230107  RH  048%=      5-min Rain = 0
KAI1 111546Z 24009KT 22/11 A3026 RMK A01 T02220109  RH  049%=      5-min Rain = 0
KAI1 111547Z 25008KT 22/11 A3026 RMK A01 T02240111  RH  049%=      5-min Rain = 0
KAI1 111548Z 24006KT 23/11 A3026 RMK A01 T02270112  RH  048%=      5-min Rain = 0
KAI1 111549Z 25006KT 23/11 A3026 RMK A01 T02290112  RH  048%=      5-min Rain = 0
KAI1 111550Z 25007KT 23/12 A3026 RMK A01 T02300116  RH  049%=      5-min Rain = 0
KAI1 111551Z 25007KT 23/12 A3026 RMK A01 T02330116  RH  047%=      5-min Rain = 0
KAI1 111552Z 24006KT 23/11 A3026 RMK A01 T02340113  RH  046%=      5-min Rain = 0
KAI1 111553Z 26007KT 23/11 A3026 RMK A01 T02330113  RH  047%=      5-min Rain = 0
KAI1 111554Z 26007KT 23/11 A3026 RMK A01 T02320113  RH  047%=      5-min Rain = 0
KAI1 111555Z 26009KT 23/11 A3026 RMK A01 T02330112  RH  046%=      5-min Rain = 0
KAI1 111556Z 25008KT 23/11 A3026 RMK A01 T02330112  RH  046%=      5-min Rain = 0
KAI1 111557Z 25007KT 23/11 A3026 RMK A01 T02330108  RH  045%=      5-min Rain = 0
KAI1 111558Z 26008KT 23/11 A3026 RMK A01 T02320110  RH  046%=      5-min Rain = 0
KAI1 111559Z 27007KT 23/11 A3026 RMK A01 T02320110  RH  046%=      5-min Rain = 0
KAI1 111600Z 26009KT 23/11 A3026 RMK A01 T02320111  RH  046%=      5-min Rain = 0
KAI1 111601Z 26008KT 23/11 A3026 RMK A01 T02330113  RH  047%=      5-min Rain = 0
KAI1 111602Z 25011KT 24/11 A3026 RMK A01 T02350110  RH  045%=      5-min Rain = 0
KAI1 111603Z 25009KT 23/11 A3026 RMK A01 T02330108  RH  045%=      5-min Rain = 0
KAI1 111604Z 26008KT 23/11 A3026 RMK A01 T02310109  RH  046%=      5-min Rain = 0
KAI1 111605Z 25009KT 23/11 A3026 RMK A01 T02330111  RH  046%=      5-min Rain = 0
KAI1 111606Z 25009KT 23/11 A3026 RMK A01 T02330109  RH  046%=      5-min Rain = 0
KAI1 111607Z 24009KT 23/11 A3026 RMK A01 T02330107  RH  045%=      5-min Rain = 0
KAI1 111608Z 25008KT 23/11 A3026 RMK A01 T02330108  RH  045%=      5-min Rain = 0
KAI1 111609Z 27008KT 23/11 A3026 RMK A01 T02330108  RH  045%=      5-min Rain = 0
KAI1 111610Z 26007KT 23/11 A3026 RMK A01 T02320110  RH  046%=      5-min Rain = 0
KAI1 111611Z 27007KT 23/11 A3026 RMK A01 T02340110  RH  046%=      5-min Rain = 0
KAI1 111612Z 26009KT 24/11 A3026 RMK A01 T02350111  RH  046%=      5-min Rain = 0
KAI1 111613Z 25008KT 23/11 A3026 RMK A01 T02330108  RH  045%=      5-min Rain = 0
KAI1 111614Z 24008KT 23/11 A3026 RMK A01 T02330106  RH  045%=      5-min Rain = 0
KAI1 111615Z 25006KT 23/11 A3026 RMK A01 T02320109  RH  046%=      5-min Rain = 0
KAI1 111616Z 25009KT 24/11 A3026 RMK A01 T02360108  RH  045%=      5-min Rain = 0
KAI1 111617Z 25008KT 24/11 A3026 RMK A01 T02360107  RH  044%=      5-min Rain = 0
KAI1 111618Z 25008KT 24/11 A3026 RMK A01 T02350109  RH  045%=      5-min Rain = 0
KAI1 111619Z 25008KT 23/11 A3026 RMK A01 T02340106  RH  044%=      5-min Rain = 0
KAI1 111620Z 25008KT 23/11 A3026 RMK A01 T02340109  RH  045%=      5-min Rain = 0
KAI1 111621Z 25006KT 23/11 A3026 RMK A01 T02340107  RH  045%=      5-min Rain = 0
KAI1 111622Z 25006KT 23/11 A3026 RMK A01 T02340108  RH  045%=      5-min Rain = 0
KAI1 111623Z 25007KT 24/11 A3026 RMK A01 T02360108  RH  044%=      5-min Rain = 0
KAI1 111624Z 23007KT 24/11 A3026 RMK A01 T02360107  RH  044%=      5-min Rain = 0
KAI1 111625Z 24007KT 24/11 A3026 RMK A01 T02350110  RH  045%=      5-min Rain = 0
KAI1 111626Z 24007KT 24/11 A3026 RMK A01 T02400114  RH  045%=      5-min Rain = 0
KAI1 111627Z 23008KT 24/11 A3026 RMK A01 T02410107  RH  043%=      5-min Rain = 0
KAI1 111628Z 23008KT 24/11 A3026 RMK A01 T02400107  RH  043%=      5-min Rain = 0
KAI1 111629Z 24007KT 24/11 A3026 RMK A01 T02410110  RH  044%=      5-min Rain = 0
KAI1 111630Z 24007KT 24/11 A3026 RMK A01 T02410110  RH  044%=      5-min Rain = 0
KAI1 111631Z 25007KT 24/11 A3026 RMK A01 T02410109  RH  043%=      5-min Rain = 0
KAI1 111632Z 26006KT 24/11 A3026 RMK A01 T02390109  RH  044%=      5-min Rain = 0
KAI1 111633Z 27007KT 24/11 A3026 RMK A01 T02390109  RH  044%=      5-min Rain = 0
KAI1 111634Z 26007KT 24/11 A3026 RMK A01 T02380111  RH  045%=      5-min Rain = 0
KAI1 111635Z 25006KT 24/11 A3026 RMK A01 T02400110  RH  044%=      5-min Rain = 0
KAI1 111636Z 27006KT 24/11 A3026 RMK A01 T02410110  RH  044%=      5-min Rain = 0
KAI1 111637Z 26009KT 24/11 A3026 RMK A01 T02420114  RH  045%=      5-min Rain = 0
KAI1 111638Z 27008KT 24/11 A3026 RMK A01 T02430109  RH  043%=      5-min Rain = 0
KAI1 111639Z 26007KT 24/11 A3026 RMK A01 T02420112  RH  044%=      5-min Rain = 0
KAI1 111640Z 25007KT 24/11 A3026 RMK A01 T02420111  RH  044%=      5-min Rain = 0
KAI1 111641Z 24007KT 24/11 A3025 RMK A01 T02420111  RH  043%=      5-min Rain = 0
KAI1 111642Z 23008KT 24/11 A3025 RMK A01 T02420107  RH  043%=      5-min Rain = 0
KAI1 111643Z 23009KT 24/11 A3025 RMK A01 T02420109  RH  043%=      5-min Rain = 0
KAI1 111644Z 23008KT 24/11 A3025 RMK A01 T02430109  RH  043%=      5-min Rain = 0
KAI1 111645Z 24008KT 24/11 A3025 RMK A01 T02440107  RH  042%=      5-min Rain = 0
KAI1 111646Z 25009KT 24/11 A3025 RMK A01 T02440110  RH  043%=      5-min Rain = 0
KAI1 111647Z 25008KT 25/11 A3025 RMK A01 T02450110  RH  043%=      5-min Rain = 0
KAI1 111648Z 25007KT 24/11 A3025 RMK A01 T02440107  RH  042%=      5-min Rain = 0
KAI1 111649Z 24005KT 24/11 A3025 RMK A01 T02420105  RH  042%=      5-min Rain = 0
KAI1 111650Z 27005KT 24/11 A3025 RMK A01 T02400107  RH  043%=      5-min Rain = 0
KAI1 111651Z 28006G12KT 24/11 A3025 RMK A01 T02400107  RH  043%=      5-min Rain = 0
KAI1 111652Z 25009KT 24/11 A3025 RMK A01 T02430112  RH  044%=      5-min Rain = 0
KAI1 111653Z 25008KT 25/11 A3026 RMK A01 T02450108  RH  042%=      5-min Rain = 0
KAI1 111654Z 25006KT 25/11 A3026 RMK A01 T02450108  RH  042%=      5-min Rain = 0
KAI1 111655Z 24004KT 24/11 A3026 RMK A01 T02440107  RH  042%=      5-min Rain = 0
KAI1 111656Z 26005KT 25/11 A3026 RMK A01 T02460112  RH  043%=      5-min Rain = 0
KAI1 111657Z 26005KT 25/11 A3025 RMK A01 T02500110  RH  042%=      5-min Rain = 0
KAI1 111658Z 25004KT 25/11 A3025 RMK A01 T02490106  RH  041%=      5-min Rain = 0
KAI1 111659Z 24007KT 25/11 A3025 RMK A01 T02470108  RH  041%=      5-min Rain = 0
KAI1 111700Z 23007KT 25/11 A3025 RMK A01 T02470109  RH  042%=      5-min Rain = 0
KAI1 111701Z 23007KT 25/11 A3025 RMK A01 T02470108  RH  042%=      5-min Rain = 0
KAI1 111702Z 25005KT 25/11 A3025 RMK A01 T02470109  RH  042%=      5-min Rain = 0
KAI1 111703Z 23005KT 25/11 A3025 RMK A01 T02470112  RH  043%=      5-min Rain = 0
KAI1 111704Z 22006KT 25/11 A3025 RMK A01 T02490111  RH  042%=      5-min Rain = 0
KAI1 111705Z 25007KT 25/11 A3025 RMK A01 T02510111  RH  041%=      5-min Rain = 0
KAI1 111706Z 27007KT 25/11 A3025 RMK A01 T02510110  RH  041%=      5-min Rain = 0
KAI1 111707Z 26006KT 25/11 A3025 RMK A01 T02470109  RH  042%=      5-min Rain = 0
KAI1 111708Z 27005KT 25/11 A3025 RMK A01 T02480110  RH  042%=      5-min Rain = 0
KAI1 111709Z 26005KT 25/11 A3025 RMK A01 T02490108  RH  041%=      5-min Rain = 0
KAI1 111710Z 24004KT 25/11 A3025 RMK A01 T02460107  RH  041%=      5-min Rain = 0
KAI1 111711Z 24003KT 25/11 A3025 RMK A01 T02450109  RH  042%=      5-min Rain = 0
KAI1 111712Z 21007KT 25/11 A3025 RMK A01 T02460109  RH  042%=      5-min Rain = 0
KAI1 111713Z 25007KT 25/12 A3025 RMK A01 T02490116  RH  043%=      5-min Rain = 0
KAI1 111714Z 24006KT 25/11 A3025 RMK A01 T02530112  RH  041%=      5-min Rain = 0
KAI1 111715Z 22006KT 25/11 A3025 RMK A01 T02540113  RH  041%=      5-min Rain = 0
KAI1 111716Z 23005KT 25/11 A3025 RMK A01 T02520109  RH  041%=      5-min Rain = 0
KAI1 111717Z 23004KT 25/11 A3025 RMK A01 T02490110  RH  042%=      5-min Rain = 0
KAI1 111718Z 24006KT 25/11 A3025 RMK A01 T02500111  RH  042%=      5-min Rain = 0
KAI1 111719Z 25006KT 25/11 A3025 RMK A01 T02520111  RH  041%=      5-min Rain = 0
KAI1 111720Z 25004KT 25/11 A3025 RMK A01 T02530113  RH  041%=      5-min Rain = 0
KAI1 111721Z 25007KT 25/11 A3025 RMK A01 T02540114  RH  041%=      5-min Rain = 0
KAI1 111722Z 23006KT 26/11 A3025 RMK A01 T02550111  RH  040%=      5-min Rain = 0
KAI1 111723Z 24006KT 25/11 A3025 RMK A01 T02540110  RH  041%=      5-min Rain = 0
KAI1 111724Z 23007KT 25/11 A3025 RMK A01 T02530113  RH  042%=      5-min Rain = 0
KAI1 111725Z 23008KT 25/11 A3025 RMK A01 T02530112  RH  041%=      5-min Rain = 0
KAI1 111726Z 25006KT 25/11 A3025 RMK A01 T02530113  RH  041%=      5-min Rain = 0
KAI1 111727Z 24004KT 25/11 A3025 RMK A01 T02530113  RH  041%=      5-min Rain = 0
KAI1 111728Z 22003KT 26/12 A3025 RMK A01 T02550115  RH  041%=      5-min Rain = 0
KAI1 111729Z 25005KT 26/12 A3025 RMK A01 T02580116  RH  041%=      5-min Rain = 0
KAI1 111730Z 25006KT 26/12 A3025 RMK A01 T02610115  RH  040%=      5-min Rain = 0
KAI1 111731Z 25003KT 26/11 A3025 RMK A01 T02580109  RH  039%=      5-min Rain = 0
KAI1 111732Z 23007KT 26/11 A3024 RMK A01 T02560111  RH  040%=      5-min Rain = 0
KAI1 111733Z 23004KT 26/11 A3024 RMK A01 T02560109  RH  040%=      5-min Rain = 0
KAI1 111734Z 26005KT 26/11 A3024 RMK A01 T02550110  RH  040%=      5-min Rain = 0
KAI1 111735Z 30005KT 26/11 A3024 RMK A01 T02570111  RH  040%=      5-min Rain = 0
KAI1 111736Z 30004KT 26/11 A3024 RMK A01 T02580113  RH  040%=      5-min Rain = 0
KAI1 111737Z 29006KT 26/11 A3024 RMK A01 T02590114  RH  040%=      5-min Rain = 0
KAI1 111738Z 29004KT 26/11 A3024 RMK A01 T02580111  RH  040%=      5-min Rain = 0
KAI1 111739Z 28004KT 26/11 A3024 RMK A01 T02560111  RH  040%=      5-min Rain = 0
KAI1 111740Z 27008KT 26/11 A3024 RMK A01 T02560112  RH  040%=      5-min Rain = 0
KAI1 111741Z 27005KT 26/11 A3024 RMK A01 T02580111  RH  040%=      5-min Rain = 0
KAI1 111742Z 27005KT 26/11 A3024 RMK A01 T02590110  RH  039%=      5-min Rain = 0
KAI1 111743Z 27004KT 26/11 A3024 RMK A01 T02590110  RH  039%=      5-min Rain = 0
KAI1 111744Z 25006KT 26/11 A3024 RMK A01 T02600112  RH  040%=      5-min Rain = 0
KAI1 111745Z 24003KT 26/11 A3024 RMK A01 T02600110  RH  039%=      5-min Rain = 0
KAI1 111746Z 22001KT 26/11 A3024 RMK A01 T02590112  RH  040%=      5-min Rain = 0
KAI1 111747Z 20003KT 26/11 A3024 RMK A01 T02580113  RH  040%=      5-min Rain = 0
KAI1 111748Z 20003KT 26/11 A3024 RMK A01 T02600112  RH  039%=      5-min Rain = 0
KAI1 111749Z 25002KT 26/11 A3024 RMK A01 T02600113  RH  040%=      5-min Rain = 0
KAI1 111750Z 26005KT 26/11 A3024 RMK A01 T02620114  RH  040%=      5-min Rain = 0
KAI1 111751Z 27008KT 26/11 A3024 RMK A01 T02620113  RH  039%=      5-min Rain = 0
KAI1 111752Z 25006KT 26/11 A3024 RMK A01 T02620111  RH  039%=      5-min Rain = 0
KAI1 111753Z 26004KT 26/11 A3024 RMK A01 T02610111  RH  039%=      5-min Rain = 0
KAI1 111754Z 30004KT 26/11 A3024 RMK A01 T02620113  RH  039%=      5-min Rain = 0
KAI1 111755Z 31004KT 26/11 A3024 RMK A01 T02640113  RH  039%=      5-min Rain = 0
KAI1 111756Z 33004KT 27/11 A3024 RMK A01 T02650114  RH  039%=      5-min Rain = 0
KAI1 111757Z 32002KT 27/11 A3024 RMK A01 T02660113  RH  038%=      5-min Rain = 0
KAI1 111758Z 31003KT 27/11 A3024 RMK A01 T02650111  RH  038%=      5-min Rain = 0
KAI1 111759Z 31002KT 26/11 A3024 RMK A01 T02620112  RH  039%=      5-min Rain = 0
KAI1 111800Z 24004KT 26/12 A3024 RMK A01 T02620116  RH  040%=      5-min Rain = 0
KAI1 111801Z 24003KT 26/11 A3024 RMK A01 T02630108  RH  038%=      5-min Rain = 0
KAI1 111802Z 28005KT 26/11 A3024 RMK A01 T02630112  RH  039%=      5-min Rain = 0
KAI1 111803Z 27006KT 27/11 A3024 RMK A01 T02660110  RH  038%=      5-min Rain = 0
KAI1 111804Z 26007KT 27/11 A3024 RMK A01 T02670108  RH  037%=      5-min Rain = 0
KAI1 111805Z 25005KT 27/11 A3024 RMK A01 T02650108  RH  037%=      5-min Rain = 0
KAI1 111806Z 27005KT 26/11 A3024 RMK A01 T02630110  RH  038%=      5-min Rain = 0
KAI1 111807Z 30005KT 27/11 A3024 RMK A01 T02660110  RH  038%=      5-min Rain = 0
KAI1 111808Z 29004KT 27/11 A3024 RMK A01 T02680110  RH  037%=      5-min Rain = 0
KAI1 111809Z 28004KT 27/11 A3024 RMK A01 T02680111  RH  037%=      5-min Rain = 0
KAI1 111810Z 28002KT 27/11 A3024 RMK A01 T02690110  RH  037%=      5-min Rain = 0
KAI1 111811Z 25000KT 27/11 A3024 RMK A01 T02670106  RH  036%=      5-min Rain = 0
KAI1 111812Z 31001KT 27/11 A3024 RMK A01 T02660108  RH  037%=      5-min Rain = 0
KAI1 111813Z 29000KT 27/11 A3024 RMK A01 T02660107  RH  037%=      5-min Rain = 0
KAI1 111814Z 20005KT 27/11 A3023 RMK A01 T02660110  RH  038%=      5-min Rain = 0
KAI1 111815Z 21004KT 27/11 A3023 RMK A01 T02680114  RH  038%=      5-min Rain = 0
KAI1 111816Z 19004KT 27/12 A3023 RMK A01 T02710115  RH  038%=      5-min Rain = 0
KAI1 111817Z 20003KT 27/11 A3023 RMK A01 T02720113  RH  037%=      5-min Rain = 0
KAI1 111818Z 24004KT 27/11 A3023 RMK A01 T02710114  RH  038%=      5-min Rain = 0
KAI1 111819Z 27004KT 27/11 A3023 RMK A01 T02700112  RH  037%=      5-min Rain = 0
KAI1 111820Z 25002KT 27/11 A3023 RMK A01 T02670113  RH  038%=      5-min Rain = 0
KAI1 111821Z 28006KT 27/12 A3023 RMK A01 T02670116  RH  039%=      5-min Rain = 0
KAI1 111822Z 31004KT 27/11 A3023 RMK A01 T02700113  RH  037%=      5-min Rain = 0
KAI1 111823Z 29003KT 27/11 A3023 RMK A01 T02700111  RH  037%=      5-min Rain = 0
KAI1 111824Z 30003KT 27/11 A3023 RMK A01 T02690111  RH  037%=      5-min Rain = 0
KAI1 111825Z 34006KT 27/11 A3023 RMK A01 T02690111  RH  037%=      5-min Rain = 0
KAI1 111826Z 36006KT 27/11 A3023 RMK A01 T02690110  RH  037%=      5-min Rain = 0
KAI1 111827Z 35004KT 27/11 A3023 RMK A01 T02670107  RH  037%=      5-min Rain = 0
KAI1 111828Z 03002KT 26/11 A3023 RMK A01 T02640108  RH  038%=      5-min Rain = 0
KAI1 111829Z 05002KT 27/11 A3023 RMK A01 T02650111  RH  038%=      5-min Rain = 0
KAI1 111830Z 27004KT 27/11 A3023 RMK A01 T02680112  RH  038%=      5-min Rain = 0
KAI1 111831Z 25004KT 27/10 A3023 RMK A01 T02710104  RH  035%=      5-min Rain = 0
KAI1 111832Z 22004KT 27/10 A3023 RMK A01 T02710104  RH  035%=      5-min Rain = 0
KAI1 111833Z 24002KT 27/11 A3023 RMK A01 T02690106  RH  036%=      5-min Rain = 0
KAI1 111834Z 25005KT 27/11 A3022 RMK A01 T02710112  RH  037%=      5-min Rain = 0
KAI1 111835Z 28008KT 27/12 A3022 RMK A01 T02740116  RH  038%=      5-min Rain = 0
KAI1 111836Z 32007KT 28/12 A3022 RMK A01 T02760117  RH  037%=      5-min Rain = 0
KAI1 111837Z 32007KT 28/11 A3022 RMK A01 T02780111  RH  035%=      5-min Rain = 0
KAI1 111838Z 35005KT 28/11 A3022 RMK A01 T02770107  RH  035%=      5-min Rain = 0
KAI1 111839Z 34006KT 28/11 A3022 RMK A01 T02750107  RH  035%=      5-min Rain = 0
KAI1 111840Z 35006KT 27/11 A3022 RMK A01 T02740106  RH  035%=      5-min Rain = 0
KAI1 111841Z 35006KT 27/11 A3022 RMK A01 T02730105  RH  035%=      5-min Rain = 0
KAI1 111842Z 33007KT 27/11 A3022 RMK A01 T02730107  RH  035%=      5-min Rain = 0
KAI1 111843Z 32006KT 27/11 A3022 RMK A01 T02730105  RH  035%=      5-min Rain = 0
KAI1 111844Z 33006KT 27/11 A3022 RMK A01 T02730106  RH  035%=      5-min Rain = 0
KAI1 111845Z 34006KT 28/11 A3022 RMK A01 T02760109  RH  035%=      5-min Rain = 0
KAI1 111846Z 31006KT 28/11 A3022 RMK A01 T02780106  RH  034%=      5-min Rain = 0
KAI1 111847Z 30005KT 28/10 A3022 RMK A01 T02770102  RH  034%=      5-min Rain = 0
KAI1 111848Z 32005KT 28/11 A3022 RMK A01 T02750106  RH  035%=      5-min Rain = 0
KAI1 111849Z 35003KT 28/11 A3022 RMK A01 T02790107  RH  034%=      5-min Rain = 0
KAI1 111850Z 03003KT 28/10 A3022 RMK A01 T02790103  RH  033%=      5-min Rain = 0
KAI1 111851Z 03000KT 28/11 A3022 RMK A01 T02770107  RH  034%=      5-min Rain = 0
KAI1 111852Z 35001KT 28/10 A3022 RMK A01 T02770104  RH  034%=      5-min Rain = 0
KAI1 111853Z 31003KT 28/11 A3022 RMK A01 T02770108  RH  035%=      5-min Rain = 0
KAI1 111854Z 31001KT 28/11 A3022 RMK A01 T02790106  RH  034%=      5-min Rain = 0
KAI1 111855Z 00003KT 28/11 A3022 RMK A01 T02790107  RH  034%=      5-min Rain = 0
KAI1 111856Z 35003KT 28/11 A3022 RMK A01 T02800110  RH  035%=      5-min Rain = 0
KAI1 111857Z 36003KT 28/11 A3022 RMK A01 T02810106  RH  034%=      5-min Rain = 0
KAI1 111858Z 02002KT 28/10 A3022 RMK A01 T02810104  RH  033%=      5-min Rain = 0
KAI1 111859Z 36001KT 28/11 A3022 RMK A01 T02790108  RH  034%=      5-min Rain = 0
KAI1 111900Z 33002KT 28/11 A3021 RMK A01 T02800106  RH  034%=      5-min Rain = 0
KAI1 111901Z 33002KT 28/11 A3021 RMK A01 T02800105  RH  034%=      5-min Rain = 0
KAI1 111902Z 32001KT 28/11 A3021 RMK A01 T02800105  RH  034%=      5-min Rain = 0
KAI1 111903Z 27001KT 28/10 A3021 RMK A01 T02790104  RH  034%=      5-min Rain = 0
KAI1 111904Z 25000KT 28/11 A3021 RMK A01 T02790105  RH  034%=      5-min Rain = 0
KAI1 111905Z 29002KT 28/11 A3021 RMK A01 T02790108  RH  034%=      5-min Rain = 0
KAI1 111906Z 29002KT 28/11 A3021 RMK A01 T02840114  RH  035%=      5-min Rain = 0
KAI1 111907Z 25002KT 29/11 A3021 RMK A01 T02870111  RH  034%=      5-min Rain = 0
KAI1 111908Z 23002KT 29/11 A3021 RMK A01 T02880110  RH  033%=      5-min Rain = 0
KAI1 111909Z 22002KT 29/11 A3021 RMK A01 T02880111  RH  033%=      5-min Rain = 0
KAI1 111910Z 23002KT 29/11 A3021 RMK A01 T02880109  RH  033%=      5-min Rain = 0
KAI1 111911Z 23001KT 29/11 A3021 RMK A01 T02880110  RH  033%=      5-min Rain = 0
KAI1 111912Z 25004KT 29/11 A3021 RMK A01 T02880112  RH  034%=      5-min Rain = 0
KAI1 111913Z 26004KT 29/11 A3021 RMK A01 T02870110  RH  033%=      5-min Rain = 0
KAI1 111914Z 27004KT 29/11 A3021 RMK A01 T02860111  RH  034%=      5-min Rain = 0
KAI1 111915Z 25003KT 29/11 A3021 RMK A01 T02850109  RH  033%=      5-min Rain = 0
KAI1 111916Z 31002KT 28/11 A3021 RMK A01 T02830114  RH  035%=      5-min Rain = 0
KAI1 111917Z 35005KT 28/11 A3021 RMK A01 T02840109  RH  034%=      5-min Rain = 0
KAI1 111918Z 36004KT 28/11 A3021 RMK A01 T02840107  RH  033%=      5-min Rain = 0
KAI1 111919Z 01005KT 28/11 A3021 RMK A01 T02840110  RH  034%=      5-min Rain = 0
KAI1 111920Z 01004KT 29/11 A3021 RMK A01 T02850106  RH  033%=      5-min Rain = 0
KAI1 111921Z 02003KT 28/11 A3021 RMK A01 T02840106  RH  033%=      5-min Rain = 0
KAI1 111922Z 00004KT 28/11 A3021 RMK A01 T02830107  RH  033%=      5-min Rain = 0
KAI1 111923Z 04005KT 28/11 A3021 RMK A01 T02840106  RH  033%=      5-min Rain = 0
KAI1 111924Z 03002KT 28/11 A302 RMK A01 T02840107  RH  033%=      5-min Rain = 0
KAI1 111925Z 01005KT 28/11 A302 RMK A01 T02840107  RH  033%=      5-min Rain = 0
KAI1 111926Z 03002KT 28/11 A302 RMK A01 T02840106  RH  033%=      5-min Rain = 0
KAI1 111927Z 07000KT 28/10 A302 RMK A01 T02830104  RH  033%=      5-min Rain = 0
KAI1 111928Z 08002KT 28/11 A302 RMK A01 T02820106  RH  033%=      5-min Rain = 0
KAI1 111929Z 11001KT 28/11 A302 RMK A01 T02820106  RH  033%=      5-min Rain = 0
KAI1 111930Z 13002KT 28/11 A302 RMK A01 T02810106  RH  034%=      5-min Rain = 0
KAI1 111931Z 14003KT 28/11 A302 RMK A01 T02830106  RH  033%=      5-min Rain = 0
KAI1 111932Z 16002KT 28/11 A302 RMK A01 T02840107  RH  033%=      5-min Rain = 0
KAI1 111933Z 15002KT 29/11 A302 RMK A01 T02850107  RH  033%=      5-min Rain = 0
KAI1 111934Z 16001KT 29/11 A302 RMK A01 T02860107  RH  033%=      5-min Rain = 0
KAI1 111935Z 18002KT 29/11 A302 RMK A01 T02860109  RH  033%=      5-min Rain = 0
KAI1 111936Z 21004KT 29/11 A302 RMK A01 T02870108  RH  033%=      5-min Rain = 0
KAI1 111937Z 22003KT 29/11 A302 RMK A01 T02860107  RH  033%=      5-min Rain = 0
KAI1 111938Z 23004KT 29/11 A302 RMK A01 T02860108  RH  033%=      5-min Rain = 0
KAI1 111939Z 23006KT 29/11 A302 RMK A01 T02870108  RH  033%=      5-min Rain = 0
KAI1 111940Z 22003KT 29/11 A302 RMK A01 T02890110  RH  033%=      5-min Rain = 0
KAI1 111941Z 25002KT 29/11 A302 RMK A01 T02910111  RH  033%=      5-min Rain = 0
KAI1 111942Z 34001KT 29/11 A302 RMK A01 T02910110  RH  032%=      5-min Rain = 0
KAI1 111943Z 03003KT 29/11 A302 RMK A01 T02910110  RH  033%=      5-min Rain = 0
KAI1 111944Z 05003KT 29/11 A302 RMK A01 T02910107  RH  032%=      5-min Rain = 0
KAI1 111945Z 04002KT 29/11 A302 RMK A01 T02900107  RH  032%=      5-min Rain = 0
KAI1 111946Z 08003KT 29/11 A302 RMK A01 T02900113  RH  034%=      5-min Rain = 0
KAI1 111947Z 06003KT 29/11 A302 RMK A01 T02900107  RH  032%=      5-min Rain = 0
KAI1 111948Z 08002KT 29/11 A302 RMK A01 T02890106  RH  032%=      5-min Rain = 0
KAI1 111949Z 07002KT 29/11 A302 RMK A01 T02870105  RH  032%=      5-min Rain = 0
KAI1 111950Z 13000KT 29/11 A302 RMK A01 T02860106  RH  033%=      5-min Rain = 0
KAI1 111951Z 16001KT 29/11 A3019 RMK A01 T02860105  RH  032%=      5-min Rain = 0
KAI1 111952Z 15001KT 29/11 A3019 RMK A01 T02880107  RH  032%=      5-min Rain = 0
KAI1 111953Z 11001KT 29/11 A3019 RMK A01 T02900111  RH  033%=      5-min Rain = 0
KAI1 111954Z 10001KT 29/12 A3019 RMK A01 T02910115  RH  034%=      5-min Rain = 0
KAI1 111955Z 15002KT 29/11 A3019 RMK A01 T02920111  RH  032%=      5-min Rain = 0
KAI1 111956Z 14002KT 29/11 A3019 RMK A01 T02930107  RH  032%=      5-min Rain = 0
KAI1 111957Z 12002KT 29/11 A3019 RMK A01 T02920109  RH  032%=      5-min Rain = 0
KAI1 111958Z 12000KT 29/11 A3019 RMK A01 T02910112  RH  033%=      5-min Rain = 0
KAI1 111959Z 30002KT 29/12 A3019 RMK A01 T02940115  RH  033%=      5-min Rain = 0
KAI1 112000Z 31002KT 30/11 A3019 RMK A01 T02960109  RH  031%=      5-min Rain = 0
KAI1 112001Z 30001KT 30/11 A3019 RMK A01 T02950107  RH  031%=      5-min Rain = 0
KAI1 112002Z 03001KT 29/11 A3019 RMK A01 T02940109  RH  032%=      5-min Rain = 0
KAI1 112003Z 02001KT 29/11 A3019 RMK A01 T02940109  RH  032%=      5-min Rain = 0
KAI1 112004Z 09000KT 29/11 A3019 RMK A01 T02930114  RH  033%=      5-min Rain = 0
KAI1 112005Z 04002KT 29/11 A3019 RMK A01 T02930111  RH  032%=      5-min Rain = 0
KAI1 112006Z 09002KT 29/11 A3018 RMK A01 T02930109  RH  032%=      5-min Rain = 0
KAI1 112007Z 10002KT 29/11 A3018 RMK A01 T02930108  RH  032%=      5-min Rain = 0
KAI1 112008Z 12003KT 29/11 A3018 RMK A01 T02930110  RH  032%=      5-min Rain = 0
KAI1 112009Z 08002KT 29/11 A3018 RMK A01 T02940109  RH  032%=      5-min Rain = 0
KAI1 112010Z 05003KT 29/11 A3018 RMK A01 T02920105  RH  031%=      5-min Rain = 0
KAI1 112011Z 02001KT 29/11 A3018 RMK A01 T02880105  RH  032%=      5-min Rain = 0
KAI1 112012Z 35002KT 29/11 A3018 RMK A01 T02870107  RH  033%=      5-min Rain = 0
KAI1 112013Z 03001KT 29/11 A3018 RMK A01 T02870108  RH  033%=      5-min Rain = 0
KAI1 112014Z 03000KT 29/11 A3018 RMK A01 T02880106  RH  032%=      5-min Rain = 0
KAI1 112015Z 11000KT 29/11 A3018 RMK A01 T02890112  RH  033%=      5-min Rain = 0
KAI1 112016Z 12002KT 29/11 A3018 RMK A01 T02900109  RH  033%=      5-min Rain = 0
KAI1 112017Z 16002KT 29/11 A3018 RMK A01 T02910109  RH  032%=      5-min Rain = 0
KAI1 112018Z 16002KT 29/11 A3018 RMK A01 T02900111  RH  033%=      5-min Rain = 0
KAI1 112019Z 14002KT 29/11 A3018 RMK A01 T02900113  RH  033%=      5-min Rain = 0
KAI1 112020Z 18004KT 29/11 A3018 RMK A01 T02920111  RH  033%=      5-min Rain = 0
KAI1 112021Z 13004KT 29/12 A3018 RMK A01 T02940116  RH  033%=      5-min Rain = 0
KAI1 112022Z 13001KT 30/12 A3018 RMK A01 T02970115  RH  033%=      5-min Rain = 0
KAI1 112023Z 04002KT 30/12 A3018 RMK A01 T02980115  RH  032%=      5-min Rain = 0
KAI1 112024Z 01002KT 30/11 A3018 RMK A01 T02980114  RH  032%=      5-min Rain = 0
KAI1 112025Z 35004KT 30/11 A3018 RMK A01 T02980110  RH  031%=      5-min Rain = 0
KAI1 112026Z 01005KT 30/11 A3017 RMK A01 T02970107  RH  031%=      5-min Rain = 0
KAI1 112027Z 36004KT 29/11 A3017 RMK A01 T02940107  RH  031%=      5-min Rain = 0
KAI1 112028Z 35004KT 29/11 A3017 RMK A01 T02920106  RH  031%=      5-min Rain = 0
KAI1 112029Z 32003KT 29/11 A3017 RMK A01 T02900106  RH  032%=      5-min Rain = 0
KAI1 112030Z 31004KT 29/11 A3017 RMK A01 T02890107  RH  032%=      5-min Rain = 0
KAI1 112031Z 34004KT 29/11 A3017 RMK A01 T02890107  RH  032%=      5-min Rain = 0
KAI1 112032Z 35004KT 29/11 A3017 RMK A01 T02890105  RH  032%=      5-min Rain = 0
KAI1 112033Z 36005KT 29/11 A3017 RMK A01 T02890106  RH  032%=      5-min Rain = 0
KAI1 112034Z 35003KT 29/10 A3017 RMK A01 T02900104  RH  031%=      5-min Rain = 0
KAI1 112035Z 33002KT 29/10 A3017 RMK A01 T02890104  RH  032%=      5-min Rain = 0
KAI1 112036Z 35001KT 29/11 A3017 RMK A01 T02890105  RH  032%=      5-min Rain = 0
KAI1 112037Z 00000KT 29/11 A3017 RMK A01 T02890107  RH  032%=      5-min Rain = 0
KAI1 112038Z 00000KT 29/11 A3017 RMK A01 T02900105  RH  032%=      5-min Rain = 0
KAI1 112039Z 00000KT 29/10 A3017 RMK A01 T02910104  RH  031%=      5-min Rain = 0
KAI1 112040Z 00000KT 29/11 A3017 RMK A01 T02920106  RH  032%=      5-min Rain = 0
KAI1 112041Z 13001KT 29/11 A3017 RMK A01 T02930108  RH  032%=      5-min Rain = 0
KAI1 112042Z 14003KT 30/11 A3017 RMK A01 T02950109  RH  032%=      5-min Rain = 0
KAI1 112043Z 11003KT 30/11 A3017 RMK A01 T02960107  RH  031%=      5-min Rain = 0
KAI1 112044Z 12003KT 30/11 A3016 RMK A01 T02950107  RH  031%=      5-min Rain = 0
KAI1 112045Z 08002KT 29/11 A3016 RMK A01 T02940108  RH  032%=      5-min Rain = 0
KAI1 112046Z 09003KT 29/11 A3016 RMK A01 T02920107  RH  032%=      5-min Rain = 0
KAI1 112047Z 08003KT 29/11 A3016 RMK A01 T02920108  RH  032%=      5-min Rain = 0
KAI1 112048Z 08002KT 29/11 A3016 RMK A01 T02920106  RH  032%=      5-min Rain = 0
KAI1 112049Z 11003KT 29/11 A3016 RMK A01 T02910111  RH  033%=      5-min Rain = 0
KAI1 112050Z 13002KT 29/11 A3016 RMK A01 T02930107  RH  031%=      5-min Rain = 0
KAI1 112051Z 14002KT 29/11 A3016 RMK A01 T02940107  RH  031%=      5-min Rain = 0
KAI1 112052Z 12001KT 29/11 A3016 RMK A01 T02940108  RH  032%=      5-min Rain = 0
KAI1 112053Z 14001KT 30/11 A3016 RMK A01 T02950111  RH  032%=      5-min Rain = 0
KAI1 112054Z 19000KT 30/11 A3016 RMK A01 T02950107  RH  031%=      5-min Rain = 0
KAI1 112055Z 34000KT 30/11 A3016 RMK A01 T02950107  RH  031%=      5-min Rain = 0
KAI1 112056Z 29000KT 29/11 A3016 RMK A01 T02940106  RH  031%=      5-min Rain = 0
KAI1 112057Z 17000KT 30/11 A3016 RMK A01 T02950107  RH  031%=      5-min Rain = 0
KAI1 112058Z 24001KT 30/11 A3016 RMK A01 T02960108  RH  031%=      5-min Rain = 0
KAI1 112059Z 25004KT 30/11 A3016 RMK A01 T02970109  RH  031%=      5-min Rain = 0
KAI1 112100Z 29004KT 30/11 A3016 RMK A01 T02980107  RH  031%=      5-min Rain = 0
KAI1 112101Z 29004KT 30/11 A3016 RMK A01 T02960106  RH  031%=      5-min Rain = 0
KAI1 112102Z 26002KT 30/11 A3016 RMK A01 T02950108  RH  031%=      5-min Rain = 0
KAI1 112103Z 24001KT 30/11 A3016 RMK A01 T02970110  RH  031%=      5-min Rain = 0
KAI1 112104Z 19002KT 30/11 A3016 RMK A01 T02990111  RH  031%=      5-min Rain = 0
KAI1 112105Z 24002KT 30/12 A3016 RMK A01 T03010115  RH  032%=      5-min Rain = 0
KAI1 112106Z 25004KT 30/11 A3016 RMK A01 T03030113  RH  031%=      5-min Rain = 0
KAI1 112107Z 23005KT 30/11 A3016 RMK A01 T03030111  RH  031%=      5-min Rain = 0
KAI1 112108Z 24005KT 30/11 A3016 RMK A01 T03010109  RH  031%=      5-min Rain = 0
KAI1 112109Z 25003KT 30/11 A3016 RMK A01 T02970109  RH  031%=      5-min Rain = 0
KAI1 112110Z 23003KT 30/11 A3016 RMK A01 T02960110  RH  031%=      5-min Rain = 0
KAI1 112111Z 24002KT 30/11 A3016 RMK A01 T02970109  RH  031%=      5-min Rain = 0
KAI1 112112Z 31000KT 30/11 A3016 RMK A01 T02960111  RH  032%=      5-min Rain = 0
KAI1 112113Z 26001KT 30/11 A3016 RMK A01 T02970111  RH  032%=      5-min Rain = 0
KAI1 112114Z 34002KT 30/11 A3015 RMK A01 T02980111  RH  031%=      5-min Rain = 0
KAI1 112115Z 29004KT 30/11 A3015 RMK A01 T02990111  RH  031%=      5-min Rain = 0
KAI1 112116Z 29003KT 30/11 A3015 RMK A01 T02990112  RH  032%=      5-min Rain = 0
KAI1 112117Z 32003KT 30/11 A3015 RMK A01 T02990110  RH  031%=      5-min Rain = 0
KAI1 112118Z 29003KT 30/11 A3015 RMK A01 T02990110  RH  031%=      5-min Rain = 0
KAI1 112119Z 28002KT 30/11 A3015 RMK A01 T02970112  RH  032%=      5-min Rain = 0
KAI1 112120Z 29003KT 30/11 A3015 RMK A01 T02990113  RH  032%=      5-min Rain = 0
KAI1 112121Z 22002KT 30/11 A3015 RMK A01 T03010110  RH  031%=      5-min Rain = 0
KAI1 112122Z 22003KT 30/11 A3015 RMK A01 T03020107  RH  030%=      5-min Rain = 0
KAI1 112123Z 24001KT 30/11 A3015 RMK A01 T03010107  RH  030%=      5-min Rain = 0
KAI1 112124Z 28001KT 30/11 A3015 RMK A01 T03000107  RH  030%=      5-min Rain = 0
KAI1 112125Z 34003KT 30/11 A3015 RMK A01 T03000107  RH  030%=      5-min Rain = 0
KAI1 112126Z 34002KT 30/11 A3015 RMK A01 T02980105  RH  030%=      5-min Rain = 0
KAI1 112127Z 32002KT 30/10 A3015 RMK A01 T02950104  RH  031%=      5-min Rain = 0
KAI1 112128Z 07001KT 29/11 A3015 RMK A01 T02940107  RH  031%=      5-min Rain = 0
KAI1 112129Z 10002KT 30/11 A3015 RMK A01 T02950108  RH  031%=      5-min Rain = 0
KAI1 112130Z 11002KT 30/11 A3015 RMK A01 T02950113  RH  032%=      5-min Rain = 0
KAI1 112131Z 12003KT 30/11 A3015 RMK A01 T02960112  RH  032%=      5-min Rain = 0
KAI1 112132Z 11003KT 30/11 A3015 RMK A01 T02980111  RH  031%=      5-min Rain = 0
KAI1 112133Z 09002KT 30/11 A3015 RMK A01 T02990107  RH  031%=      5-min Rain = 0
KAI1 112134Z 05000KT 30/11 A3015 RMK A01 T02990109  RH  031%=      5-min Rain = 0
KAI1 112135Z 00000KT 30/11 A3015 RMK A01 T02990113  RH  032%=      5-min Rain = 0
KAI1 112136Z 13000KT 30/11 A3014 RMK A01 T03000111  RH  031%=      5-min Rain = 0
KAI1 112137Z 14003KT 30/11 A3014 RMK A01 T03010113  RH  031%=      5-min Rain = 0
KAI1 112138Z 13005KT 30/12 A3014 RMK A01 T03020119  RH  032%=      5-min Rain = 0
KAI1 112139Z 10005KT 30/12 A3014 RMK A01 T03020121  RH  033%=      5-min Rain = 0
KAI1 112140Z 07004KT 30/11 A3014 RMK A01 T03010114  RH  031%=      5-min Rain = 0
KAI1 112141Z 06003KT 30/11 A3014 RMK A01 T03000110  RH  031%=      5-min Rain = 0
KAI1 112142Z 04002KT 30/11 A3014 RMK A01 T02990108  RH  031%=      5-min Rain = 0
KAI1 112143Z 06002KT 30/11 A3014 RMK A01 T02980111  RH  031%=      5-min Rain = 0
KAI1 112144Z 12005KT 30/12 A3014 RMK A01 T02980118  RH  033%=      5-min Rain = 0
KAI1 112145Z 12007KT 30/12 A3014 RMK A01 T02990120  RH  033%=      5-min Rain = 0
KAI1 112146Z 13006KT 30/12 A3014 RMK A01 T02990118  RH  033%=      5-min Rain = 0
KAI1 112147Z 14006KT 30/11 A3014 RMK A01 T03010110  RH  031%=      5-min Rain = 0
KAI1 112148Z 14006KT 30/11 A3014 RMK A01 T03010109  RH  030%=      5-min Rain = 0
KAI1 112149Z 14005KT 30/11 A3014 RMK A01 T03020110  RH  031%=      5-min Rain = 0
KAI1 112150Z 13004KT 30/11 A3014 RMK A01 T03010109  RH  030%=      5-min Rain = 0
KAI1 112151Z 15003KT 30/11 A3014 RMK A01 T03010108  RH  030%=      5-min Rain = 0
KAI1 112152Z 14003KT 30/11 A3014 RMK A01 T03010108  RH  030%=      5-min Rain = 0
KAI1 112153Z 14002KT 30/11 A3014 RMK A01 T03000108  RH  030%=      5-min Rain = 0
KAI1 112154Z 14003KT 30/11 A3014 RMK A01 T03010110  RH  031%=      5-min Rain = 0
KAI1 112155Z 13003KT 30/11 A3014 RMK A01 T03010110  RH  031%=      5-min Rain = 0
KAI1 112156Z 10005KT 30/12 A3014 RMK A01 T03000117  RH  032%=      5-min Rain = 0
KAI1 112157Z 09004KT 30/11 A3014 RMK A01 T02990113  RH  032%=      5-min Rain = 0
KAI1 112158Z 10004KT 30/12 A3014 RMK A01 T02970119  RH  033%=      5-min Rain = 0
KAI1 112159Z 10004KT 30/11 A3014 RMK A01 T02960110  RH  032%=      5-min Rain = 0
KAI1 112200Z 11002KT 30/11 A3014 RMK A01 T02960107  RH  031%=      5-min Rain = 0
KAI1 112201Z 12000KT 30/11 A3014 RMK A01 T02950108  RH  031%=      5-min Rain = 0
KAI1 112202Z 00000KT 30/11 A3014 RMK A01 T02950106  RH  031%=      5-min Rain = 0
KAI1 112203Z 03000KT 30/11 A3014 RMK A01 T02960107  RH  031%=      5-min Rain = 0
KAI1 112204Z 11000KT 30/11 A3014 RMK A01 T02970110  RH  031%=      5-min Rain = 0
KAI1 112205Z 11001KT 30/11 A3014 RMK A01 T02990110  RH  031%=      5-min Rain = 0
KAI1 112206Z 13002KT 30/12 A3014 RMK A01 T03000115  RH  032%=      5-min Rain = 0
KAI1 112207Z 12002KT 30/12 A3014 RMK A01 T03010115  RH  032%=      5-min Rain = 0
KAI1 112208Z 12003KT 30/11 A3014 RMK A01 T03010112  RH  031%=      5-min Rain = 0
KAI1 112209Z 11003KT 30/11 A3014 RMK A01 T03010110  RH  031%=      5-min Rain = 0
KAI1 112210Z 11002KT 30/11 A3014 RMK A01 T03010111  RH  031%=      5-min Rain = 0
KAI1 112211Z 14002KT 30/12 A3014 RMK A01 T03000115  RH  032%=      5-min Rain = 0
KAI1 112212Z 12003KT 30/12 A3014 RMK A01 T03000119  RH  033%=      5-min Rain = 0
KAI1 112213Z 12003KT 30/12 A3014 RMK A01 T03020118  RH  032%=      5-min Rain = 0
KAI1 112214Z 12002KT 30/11 A3014 RMK A01 T03030111  RH  031%=      5-min Rain = 0
KAI1 112215Z 12002KT 30/12 A3014 RMK A01 T03030115  RH  031%=      5-min Rain = 0
KAI1 112216Z 12004KT 30/11 A3014 RMK A01 T03030112  RH  031%=      5-min Rain = 0
KAI1 112217Z 12003KT 30/11 A3014 RMK A01 T03010109  RH  031%=      5-min Rain = 0
KAI1 112218Z 12003KT 30/11 A3014 RMK A01 T02990106  RH  030%=      5-min Rain = 0
KAI1 112219Z 12003KT 30/11 A3014 RMK A01 T02980109  RH  031%=      5-min Rain = 0
KAI1 112220Z 10002KT 30/11 A3014 RMK A01 T02980109  RH  031%=      5-min Rain = 0
KAI1 112221Z 12002KT 30/11 A3014 RMK A01 T02980113  RH  032%=      5-min Rain = 0
KAI1 112222Z 15003KT 30/11 A3014 RMK A01 T02980114  RH  032%=      5-min Rain = 0
KAI1 112223Z 15003KT 30/11 A3014 RMK A01 T02990109  RH  031%=      5-min Rain = 0
KAI1 112224Z 15002KT 30/11 A3014 RMK A01 T03000107  RH  030%=      5-min Rain = 0
KAI1 112225Z 15002KT 30/11 A3014 RMK A01 T03020107  RH  030%=      5-min Rain = 0
KAI1 112226Z 15002KT 30/11 A3014 RMK A01 T03020106  RH  030%=      5-min Rain = 0
KAI1 112227Z 15001KT 30/11 A3014 RMK A01 T03030108  RH  030%=      5-min Rain = 0
KAI1 112228Z 18000KT 30/11 A3014 RMK A01 T03040113  RH  031%=      5-min Rain = 0
KAI1 112229Z 18001KT 30/11 A3014 RMK A01 T03040109  RH  030%=      5-min Rain = 0
KAI1 112230Z 16001KT 31/11 A3014 RMK A01 T03060108  RH  029%=      5-min Rain = 0
KAI1 112231Z 14002KT 31/11 A3014 RMK A01 T03070111  RH  030%=      5-min Rain = 0
KAI1 112232Z 15002KT 31/11 A3014 RMK A01 T03080114  RH  030%=      5-min Rain = 0
KAI1 112233Z 15001KT 31/11 A3014 RMK A01 T03080113  RH  030%=      5-min Rain = 0
KAI1 112234Z 14002KT 31/11 A3014 RMK A01 T03090111  RH  030%=      5-min Rain = 0
KAI1 112235Z 13002KT 31/11 A3014 RMK A01 T03090110  RH  029%=      5-min Rain = 0
KAI1 112236Z 13002KT 31/11 A3014 RMK A01 T03070109  RH  029%=      5-min Rain = 0
KAI1 112237Z 12001KT 31/11 A3014 RMK A01 T03050110  RH  030%=      5-min Rain = 0
KAI1 112238Z 15001KT 30/11 A3014 RMK A01 T03030108  RH  030%=      5-min Rain = 0
KAI1 112239Z 17001KT 30/11 A3014 RMK A01 T03030107  RH  030%=      5-min Rain = 0
KAI1 112240Z 18001KT 30/11 A3014 RMK A01 T03040108  RH  030%=      5-min Rain = 0
KAI1 112241Z 20001KT 30/11 A3014 RMK A01 T03040108  RH  030%=      5-min Rain = 0
KAI1 112242Z 19001KT 30/11 A3014 RMK A01 T03040109  RH  030%=      5-min Rain = 0
KAI1 112243Z 09001KT 31/11 A3014 RMK A01 T03050110  RH  030%=      5-min Rain = 0
KAI1 112244Z 07000KT 31/11 A3014 RMK A01 T03050110  RH  030%=      5-min Rain = 0
KAI1 112245Z 06001KT 31/11 A3014 RMK A01 T03050111  RH  030%=      5-min Rain = 0
KAI1 112246Z 05000KT 31/11 A3013 RMK A01 T03050108  RH  030%=      5-min Rain = 0
KAI1 112247Z 06000KT 31/11 A3013 RMK A01 T03050110  RH  030%=      5-min Rain = 0
KAI1 112248Z 03000KT 31/11 A3013 RMK A01 T03060108  RH  030%=      5-min Rain = 0
KAI1 112249Z 01001KT 31/11 A3013 RMK A01 T03050107  RH  029%=      5-min Rain = 0
KAI1 112250Z 03001KT 30/11 A3013 RMK A01 T03040106  RH  029%=      5-min Rain = 0
KAI1 112251Z 01001KT 30/11 A3013 RMK A01 T03030107  RH  030%=      5-min Rain = 0
KAI1 112252Z 00001KT 30/11 A3013 RMK A01 T03030107  RH  030%=      5-min Rain = 0
KAI1 112253Z 03001KT 30/11 A3013 RMK A01 T03030108  RH  030%=      5-min Rain = 0
KAI1 112254Z 03001KT 30/11 A3013 RMK A01 T03030107  RH  030%=      5-min Rain = 0
KAI1 112255Z 31000KT 30/11 A3013 RMK A01 T03030107  RH  030%=      5-min Rain = 0
KAI1 112256Z 12000KT 30/11 A3013 RMK A01 T03030108  RH  030%=      5-min Rain = 0
KAI1 112257Z 13002KT 30/11 A3013 RMK A01 T03030108  RH  030%=      5-min Rain = 0
KAI1 112258Z 14002KT 30/11 A3013 RMK A01 T03040106  RH  029%=      5-min Rain = 0
KAI1 112259Z 13002KT 31/11 A3013 RMK A01 T03050105  RH  029%=      5-min Rain = 0
KAI1 112300Z 13002KT 31/11 A3013 RMK A01 T03050107  RH  029%=      5-min Rain = 0
KAI1 112301Z 10002KT 31/11 A3013 RMK A01 T03050106  RH  029%=      5-min Rain = 0
KAI1 112302Z 10002KT 31/11 A3013 RMK A01 T03050107  RH  030%=      5-min Rain = 0
KAI1 112303Z 16001KT 30/11 A3013 RMK A01 T03030108  RH  030%=      5-min Rain = 0
KAI1 112304Z 08002KT 30/11 A3013 RMK A01 T03020106  RH  030%=      5-min Rain = 0
KAI1 112305Z 05003KT 30/11 A3013 RMK A01 T03010111  RH  031%=      5-min Rain = 0
KAI1 112306Z 05003KT 30/11 A3013 RMK A01 T03000111  RH  031%=      5-min Rain = 0
KAI1 112307Z 04004KT 30/11 A3013 RMK A01 T03000108  RH  031%=      5-min Rain = 0
KAI1 112308Z 03002KT 30/11 A3013 RMK A01 T03000107  RH  030%=      5-min Rain = 0
KAI1 112309Z 04001KT 30/10 A3013 RMK A01 T02990104  RH  030%=      5-min Rain = 0
KAI1 112310Z 06002KT 30/11 A3013 RMK A01 T02980108  RH  031%=      5-min Rain = 0
KAI1 112311Z 06002KT 30/11 A3013 RMK A01 T02980110  RH  031%=      5-min Rain = 0
KAI1 112312Z 07002KT 30/12 A3013 RMK A01 T02990115  RH  032%=      5-min Rain = 0
KAI1 112313Z 06004KT 30/11 A3013 RMK A01 T03010112  RH  031%=      5-min Rain = 0
KAI1 112314Z 06004KT 30/11 A3013 RMK A01 T03000107  RH  030%=      5-min Rain = 0
KAI1 112315Z 06004KT 30/11 A3013 RMK A01 T02990110  RH  031%=      5-min Rain = 0
KAI1 112316Z 07004KT 30/11 A3013 RMK A01 T02990107  RH  030%=      5-min Rain = 0
KAI1 112317Z 08003KT 30/11 A3013 RMK A01 T02980106  RH  030%=      5-min Rain = 0
KAI1 112318Z 08003KT 30/11 A3013 RMK A01 T02980106  RH  030%=      5-min Rain = 0
KAI1 112319Z 06001KT 30/10 A3013 RMK A01 T02970104  RH  030%=      5-min Rain = 0
KAI1 112320Z 03000KT 30/10 A3013 RMK A01 T02970104  RH  030%=      5-min Rain = 0
KAI1 112321Z 00000KT 30/10 A3013 RMK A01 T02970104  RH  030%=      5-min Rain = 0
KAI1 112322Z 00000KT 30/10 A3013 RMK A01 T02980104  RH  030%=      5-min Rain = 0
KAI1 112323Z 12000KT 30/11 A3013 RMK A01 T03000111  RH  031%=      5-min Rain = 0
KAI1 112324Z 13000KT 30/11 A3013 RMK A01 T03020112  RH  031%=      5-min Rain = 0
KAI1 112325Z 00000KT 30/11 A3013 RMK A01 T03040109  RH  030%=      5-min Rain = 0
KAI1 112326Z 17000KT 31/11 A3013 RMK A01 T03050106  RH  029%=      5-min Rain = 0
KAI1 112327Z 18001KT 31/11 A3013 RMK A01 T03060106  RH  029%=      5-min Rain = 0
KAI1 112328Z 21000KT 31/11 A3013 RMK A01 T03060107  RH  029%=      5-min Rain = 0
KAI1 112329Z 00000KT 31/11 A3013 RMK A01 T03060107  RH  029%=      5-min Rain = 0
KAI1 112330Z 16000KT 31/11 A3013 RMK A01 T03070110  RH  030%=      5-min Rain = 0
KAI1 112331Z 14001KT 31/11 A3013 RMK A01 T03070107  RH  029%=      5-min Rain = 0
KAI1 112332Z 14001KT 31/11 A3013 RMK A01 T03070106  RH  029%=      5-min Rain = 0
KAI1 112333Z 13000KT 31/11 A3013 RMK A01 T03060105  RH  029%=      5-min Rain = 0
KAI1 112334Z 13001KT 30/11 A3013 RMK A01 T03040107  RH  030%=      5-min Rain = 0
KAI1 112335Z 13001KT 30/11 A3013 RMK A01 T03030114  RH  031%=      5-min Rain = 0
KAI1 112336Z 11000KT 30/11 A3013 RMK A01 T03030111  RH  031%=      5-min Rain = 0
KAI1 112337Z 00000KT 30/11 A3013 RMK A01 T03020108  RH  030%=      5-min Rain = 0
KAI1 112338Z 00000KT 30/11 A3013 RMK A01 T03010106  RH  030%=      5-min Rain = 0
KAI1 112339Z 31000KT 30/11 A3013 RMK A01 T03010110  RH  031%=      5-min Rain = 0
KAI1 112340Z 31001KT 30/11 A3013 RMK A01 T03010111  RH  031%=      5-min Rain = 0
KAI1 112341Z 33001KT 30/11 A3013 RMK A01 T03010112  RH  031%=      5-min Rain = 0
KAI1 112342Z 34001KT 30/11 A3013 RMK A01 T03010113  RH  031%=      5-min Rain = 0
KAI1 112343Z 01000KT 30/11 A3013 RMK A01 T03000108  RH  030%=      5-min Rain = 0
KAI1 112344Z 33001KT 30/11 A3013 RMK A01 T03000111  RH  031%=      5-min Rain = 0
KAI1 112345Z 36001KT 30/12 A3013 RMK A01 T02990116  RH  032%=      5-min Rain = 0
KAI1 112346Z 01000KT 30/11 A3013 RMK A01 T02990112  RH  032%=      5-min Rain = 0
KAI1 112347Z 02000KT 30/11 A3013 RMK A01 T02980112  RH  032%=      5-min Rain = 0
KAI1 112348Z 02001KT 30/12 A3013 RMK A01 T02980116  RH  033%=      5-min Rain = 0
KAI1 112349Z 04001KT 30/12 A3013 RMK A01 T02970120  RH  034%=      5-min Rain = 0
KAI1 112350Z 03003KT 30/12 A3013 RMK A01 T02960122  RH  034%=      5-min Rain = 0
KAI1 112351Z 04003KT 29/13 A3013 RMK A01 T02940127  RH  036%=      5-min Rain = 0
KAI1 112352Z 04003KT 29/13 A3013 RMK A01 T02920129  RH  037%=      5-min Rain = 0
KAI1 112353Z 04002KT 29/11 A3013 RMK A01 T02920114  RH  033%=      5-min Rain = 0
KAI1 112354Z 05001KT 29/11 A3012 RMK A01 T02920108  RH  032%=      5-min Rain = 0
KAI1 112355Z 04001KT 29/11 A3012 RMK A01 T02920113  RH  033%=      5-min Rain = 0
KAI1 112356Z 07001KT 29/11 A3012 RMK A01 T02920111  RH  032%=      5-min Rain = 0
KAI1 112357Z 06001KT 29/10 A3012 RMK A01 T02920104  RH  031%=      5-min Rain = 0
KAI1 112358Z 05001KT 29/10 A3012 RMK A01 T02930103  RH  031%=      5-min Rain = 0
KAI1 112359Z 06001KT 29/10 A3013 RMK A01 T02930103  RH  031%=      5-min Rain = 0
KAI1 120000Z 06001KT 29/10 A3013 RMK A01 T02930103  RH  031%=      5-min Rain = 0
KAI1 120001Z 06000KT 29/10 A3013 RMK A01 T02930103  RH  031%=      5-min Rain = 0
KAI1 120002Z 14001KT 29/12 A3013 RMK A01 T02930124  RH  036%=      5-min Rain = 0
KAI1 120003Z 13002KT 29/15 A3013 RMK A01 T02930150  RH  042%=      5-min Rain = 0
KAI1 120004Z 15002KT 29/13 A3013 RMK A01 T02930132  RH  037%=      5-min Rain = 0
KAI1 120005Z 15001KT 29/12 A3013 RMK A01 T02920119  RH  034%=      5-min Rain = 0
KAI1 120006Z 16001KT 29/11 A3013 RMK A01 T02940108  RH  032%=      5-min Rain = 0
KAI1 120007Z 18001KT 30/11 A3013 RMK A01 T02950107  RH  031%=      5-min Rain = 0
KAI1 120008Z 17000KT 30/11 A3013 RMK A01 T02950107  RH  031%=      5-min Rain = 0
KAI1 120009Z 18000KT 30/11 A3013 RMK A01 T02960108  RH  031%=      5-min Rain = 0
KAI1 120010Z 18001KT 30/11 A3013 RMK A01 T02960109  RH  031%=      5-min Rain = 0
KAI1 120011Z 18001KT 30/11 A3012 RMK A01 T02960108  RH  031%=      5-min Rain = 0
KAI1 120012Z 20001KT 30/11 A3012 RMK A01 T02960108  RH  031%=      5-min Rain = 0
KAI1 120013Z 19001KT 30/11 A3012 RMK A01 T02960110  RH  032%=      5-min Rain = 0
KAI1 120014Z 18001KT 30/11 A3012 RMK A01 T02950112  RH  032%=      5-min Rain = 0
KAI1 120015Z 16000KT 30/12 A3012 RMK A01 T02950116  RH  033%=      5-min Rain = 0
KAI1 120016Z 15001KT 29/12 A3012 RMK A01 T02940119  RH  034%=      5-min Rain = 0
KAI1 120017Z 15002KT 29/12 A3012 RMK A01 T02940121  RH  035%=      5-min Rain = 0
KAI1 120018Z 15001KT 29/12 A3012 RMK A01 T02920119  RH  034%=      5-min Rain = 0
KAI1 120019Z 15001KT 29/13 A3012 RMK A01 T02910129  RH  037%=      5-min Rain = 0
KAI1 120020Z 15001KT 29/13 A3012 RMK A01 T02900134  RH  038%=      5-min Rain = 0
KAI1 120021Z 16001KT 29/13 A3012 RMK A01 T02880129  RH  038%=      5-min Rain = 0
KAI1 120022Z 14001KT 29/13 A3012 RMK A01 T02880128  RH  037%=      5-min Rain = 0
KAI1 120023Z 15001KT 29/13 A3012 RMK A01 T02880127  RH  037%=      5-min Rain = 0
KAI1 120024Z 15001KT 29/13 A3012 RMK A01 T02880129  RH  038%=      5-min Rain = 0
KAI1 120025Z 14002KT 29/12 A3012 RMK A01 T02870122  RH  036%=      5-min Rain = 0
KAI1 120026Z 14002KT 29/12 A3012 RMK A01 T02870124  RH  036%=      5-min Rain = 0
KAI1 120027Z 15002KT 29/13 A3012 RMK A01 T02870126  RH  037%=      5-min Rain = 0
KAI1 120028Z 13003KT 29/13 A3012 RMK A01 T02860134  RH  039%=      5-min Rain = 0
KAI1 120029Z 12003KT 29/15 A3012 RMK A01 T02850153  RH  045%=      5-min Rain = 0
KAI1 120030Z 12002KT 28/13 A3012 RMK A01 T02810133  RH  040%=      5-min Rain = 0
KAI1 120031Z 11002KT 28/14 A3012 RMK A01 T02780141  RH  043%=      5-min Rain = 0
KAI1 120032Z 12003KT 28/15 A3012 RMK A01 T02750145  RH  045%=      5-min Rain = 0
KAI1 120033Z 13002KT 27/14 A3012 RMK A01 T02730139  RH  044%=      5-min Rain = 0
KAI1 120034Z 14001KT 27/15 A3012 RMK A01 T02730150  RH  047%=      5-min Rain = 0
KAI1 120035Z 14001KT 27/15 A3012 RMK A01 T02720147  RH  046%=      5-min Rain = 0
KAI1 120036Z 13001KT 27/14 A3012 RMK A01 T02720141  RH  045%=      5-min Rain = 0
KAI1 120037Z 15001KT 27/14 A3012 RMK A01 T02710139  RH  044%=      5-min Rain = 0
KAI1 120038Z 13001KT 27/13 A3012 RMK A01 T02700132  RH  043%=      5-min Rain = 0
KAI1 120039Z 10002KT 27/13 A3012 RMK A01 T02690130  RH  042%=      5-min Rain = 0
KAI1 120040Z 10003KT 27/14 A3012 RMK A01 T02690141  RH  045%=      5-min Rain = 0
KAI1 120041Z 10002KT 27/14 A3012 RMK A01 T02660143  RH  047%=      5-min Rain = 0
KAI1 120042Z 11002KT 26/14 A3012 RMK A01 T02640136  RH  045%=      5-min Rain = 0
KAI1 120043Z 11001KT 26/14 A3012 RMK A01 T02640137  RH  046%=      5-min Rain = 0
KAI1 120044Z 13001KT 26/13 A3012 RMK A01 T02640131  RH  044%=      5-min Rain = 0
KAI1 120045Z 15001KT 26/12 A3012 RMK A01 T02640117  RH  040%=      5-min Rain = 0
KAI1 120046Z 15001KT 27/13 A3012 RMK A01 T02650126  RH  042%=      5-min Rain = 0
KAI1 120047Z 14002KT 27/12 A3012 RMK A01 T02660121  RH  041%=      5-min Rain = 0
KAI1 120048Z 14002KT 27/12 A3012 RMK A01 T02660124  RH  041%=      5-min Rain = 0
KAI1 120049Z 15001KT 27/12 A3012 RMK A01 T02670115  RH  039%=      5-min Rain = 0
KAI1 120050Z 15001KT 27/12 A3012 RMK A01 T02680118  RH  039%=      5-min Rain = 0
KAI1 120051Z 16002KT 27/12 A3012 RMK A01 T02680123  RH  041%=      5-min Rain = 0
KAI1 120052Z 16002KT 27/12 A3012 RMK A01 T02680121  RH  040%=      5-min Rain = 0
KAI1 120053Z 16002KT 27/12 A3012 RMK A01 T02670121  RH  040%=      5-min Rain = 0
KAI1 120054Z 16002KT 27/13 A3012 RMK A01 T02660133  RH  044%=      5-min Rain = 0
KAI1 120055Z 15002KT 26/14 A3012 RMK A01 T02610139  RH  047%=      5-min Rain = 0
KAI1 120056Z 11002KT 26/14 A3012 RMK A01 T02570138  RH  048%=      5-min Rain = 0
KAI1 120057Z 12002KT 26/13 A3012 RMK A01 T02550129  RH  046%=      5-min Rain = 0
KAI1 120058Z 12003KT 26/13 A3012 RMK A01 T02550130  RH  046%=      5-min Rain = 0
KAI1 120059Z 12004KT 26/12 A3012 RMK A01 T02550124  RH  044%=      5-min Rain = 0
KAI1 120100Z 11004KT 26/12 A3012 RMK A01 T02550123  RH  044%=      5-min Rain = 0
KAI1 120101Z 11005KT 26/13 A3012 RMK A01 T02550126  RH  045%=      5-min Rain = 0
KAI1 120102Z 12004KT 25/13 A3012 RMK A01 T02530128  RH  046%=      5-min Rain = 0
KAI1 120103Z 12004KT 25/13 A3012 RMK A01 T02510134  RH  048%=      5-min Rain = 0
KAI1 120104Z 10004KT 25/13 A3012 RMK A01 T02490130  RH  047%=      5-min Rain = 0
KAI1 120105Z 10005KT 25/13 A3012 RMK A01 T02500125  RH  046%=      5-min Rain = 0
KAI1 120106Z 10006KT 25/13 A3012 RMK A01 T02520130  RH  047%=      5-min Rain = 0
KAI1 120107Z 11007KT 25/13 A3012 RMK A01 T02500133  RH  048%=      5-min Rain = 0
KAI1 120108Z 12007KT 25/14 A3012 RMK A01 T02450135  RH  050%=      5-min Rain = 0
KAI1 120109Z 13008KT 24/14 A3012 RMK A01 T02400136  RH  052%=      5-min Rain = 0
KAI1 120110Z 13009KT 24/13 A3012 RMK A01 T02360130  RH  051%=      5-min Rain = 0
KAI1 120111Z 12007KT 24/13 A3012 RMK A01 T02360127  RH  050%=      5-min Rain = 0
KAI1 120112Z 12007KT 24/13 A3012 RMK A01 T02360133  RH  052%=      5-min Rain = 0
KAI1 120113Z 13007KT 23/13 A3012 RMK A01 T02340126  RH  051%=      5-min Rain = 0
KAI1 120114Z 13007KT 23/12 A3012 RMK A01 T02340124  RH  050%=      5-min Rain = 0
KAI1 120115Z 12007KT 24/13 A3012 RMK A01 T02350126  RH  050%=      5-min Rain = 0
KAI1 120116Z 12007KT 24/13 A3012 RMK A01 T02350127  RH  051%=      5-min Rain = 0
KAI1 120117Z 12007KT 23/13 A3012 RMK A01 T02340126  RH  051%=      5-min Rain = 0
KAI1 120118Z 12007KT 23/13 A3012 RMK A01 T02330126  RH  051%=      5-min Rain = 0
KAI1 120119Z 12007KT 23/13 A3012 RMK A01 T02330127  RH  051%=      5-min Rain = 0
KAI1 120120Z 12007KT 23/13 A3012 RMK A01 T02320128  RH  052%=      5-min Rain = 0
KAI1 120121Z 12007KT 23/13 A3012 RMK A01 T02300129  RH  053%=      5-min Rain = 0
KAI1 120122Z 12006KT 23/13 A3012 RMK A01 T02280130  RH  054%=      5-min Rain = 0
KAI1 120123Z 11007KT 23/13 A3012 RMK A01 T02260130  RH  055%=      5-min Rain = 0
KAI1 120124Z 11006KT 22/13 A3012 RMK A01 T02240130  RH  055%=      5-min Rain = 0
KAI1 120125Z 11006KT 22/13 A3012 RMK A01 T02230131  RH  056%=      5-min Rain = 0
KAI1 120126Z 12006KT 22/13 A3012 RMK A01 T02220132  RH  057%=      5-min Rain = 0
KAI1 120127Z 12006KT 22/13 A3012 RMK A01 T02200132  RH  057%=      5-min Rain = 0
KAI1 120128Z 12007KT 22/13 A3012 RMK A01 T02180132  RH  058%=      5-min Rain = 0
KAI1 120129Z 12007KT 22/13 A3013 RMK A01 T02170132  RH  059%=      5-min Rain = 0
KAI1 120130Z 12007KT 22/13 A3013 RMK A01 T02160132  RH  059%=      5-min Rain = 0
KAI1 120131Z 12007KT 22/13 A3013 RMK A01 T02150132  RH  059%=      5-min Rain = 0
KAI1 120132Z 12007KT 21/13 A3013 RMK A01 T02140132  RH  059%=      5-min Rain = 0
KAI1 120133Z 12007KT 21/13 A3013 RMK A01 T02130131  RH  059%=      5-min Rain = 0
KAI1 120134Z 12007KT 21/13 A3013 RMK A01 T02130131  RH  059%=      5-min Rain = 0
KAI1 120135Z 12007KT 21/13 A3013 RMK A01 T02130131  RH  059%=      5-min Rain = 0
KAI1 120136Z 12007KT 21/13 A3013 RMK A01 T02130131  RH  060%=      5-min Rain = 0
KAI1 120137Z 12007KT 21/13 A3013 RMK A01 T02120131  RH  060%=      5-min Rain = 0
KAI1 120138Z 11007KT 21/13 A3013 RMK A01 T02110130  RH  060%=      5-min Rain = 0
KAI1 120139Z 12007KT 21/13 A3013 RMK A01 T02110130  RH  060%=      5-min Rain = 0
KAI1 120140Z 12007KT 21/13 A3013 RMK A01 T02110130  RH  060%=      5-min Rain = 0
KAI1 120141Z 11007KT 21/13 A3013 RMK A01 T02110129  RH  060%=      5-min Rain = 0
KAI1 120142Z 12007KT 21/13 A3013 RMK A01 T02110129  RH  059%=      5-min Rain = 0
KAI1 120143Z 12008KT 21/13 A3013 RMK A01 T02110129  RH  059%=      5-min Rain = 0
KAI1 120144Z 11007KT 21/13 A3013 RMK A01 T02100129  RH  059%=      5-min Rain = 0
KAI1 120145Z 11007KT 21/13 A3013 RMK A01 T02100129  RH  060%=      5-min Rain = 0
KAI1 120146Z 11007KT 21/13 A3013 RMK A01 T02090128  RH  060%=      5-min Rain = 0
KAI1 120147Z 11007KT 21/13 A3013 RMK A01 T02080129  RH  060%=      5-min Rain = 0
KAI1 120148Z 11008KT 21/13 A3013 RMK A01 T02070129  RH  061%=      5-min Rain = 0
KAI1 120149Z 10008KT 21/13 A3013 RMK A01 T02060129  RH  061%=      5-min Rain = 0
KAI1 120150Z 10008KT 21/13 A3013 RMK A01 T02060130  RH  062%=      5-min Rain = 0
KAI1 120151Z 11008KT 21/13 A3013 RMK A01 T02050131  RH  062%=      5-min Rain = 0
KAI1 120152Z 11008KT 20/13 A3013 RMK A01 T02040130  RH  063%=      5-min Rain = 0
KAI1 120153Z 11008KT 20/13 A3013 RMK A01 T02030131  RH  063%=      5-min Rain = 0
KAI1 120154Z 11008KT 20/13 A3013 RMK A01 T02030131  RH  063%=      5-min Rain = 0
KAI1 120155Z 11008KT 20/13 A3013 RMK A01 T02030131  RH  063%=      5-min Rain = 0
KAI1 120156Z 11008KT 20/13 A3013 RMK A01 T02030131  RH  063%=      5-min Rain = 0
KAI1 120157Z 11008KT 20/13 A3013 RMK A01 T02020131  RH  064%=      5-min Rain = 0
KAI1 120158Z 11007KT 20/13 A3013 RMK A01 T02020131  RH  064%=      5-min Rain = 0
KAI1 120159Z 10008KT 20/13 A3014 RMK A01 T02010131  RH  064%=      5-min Rain = 0
KAI1 120200Z 10008KT 20/13 A3014 RMK A01 T02000131  RH  064%=      5-min Rain = 0
KAI1 120201Z 10007KT 20/13 A3014 RMK A01 T02000131  RH  064%=      5-min Rain = 0
KAI1 120202Z 10007KT 20/13 A3014 RMK A01 T02000131  RH  065%=      5-min Rain = 0
KAI1 120203Z 10007KT 20/13 A3014 RMK A01 T01990131  RH  065%=      5-min Rain = 0
KAI1 120204Z 10007KT 20/13 A3014 RMK A01 T01980131  RH  065%=      5-min Rain = 0
KAI1 120205Z 10008KT 20/13 A3014 RMK A01 T01970132  RH  066%=      5-min Rain = 0
KAI1 120206Z 10008KT 20/13 A3014 RMK A01 T01970131  RH  066%=      5-min Rain = 0
KAI1 120207Z 10008KT 20/13 A3014 RMK A01 T01970131  RH  066%=      5-min Rain = 0
KAI1 120208Z 10007KT 20/13 A3014 RMK A01 T01960131  RH  066%=      5-min Rain = 0
KAI1 120209Z 10007KT 20/13 A3014 RMK A01 T01950131  RH  066%=      5-min Rain = 0
KAI1 120210Z 10007KT 19/13 A3014 RMK A01 T01940131  RH  067%=      5-min Rain = 0
KAI1 120211Z 11007KT 19/13 A3014 RMK A01 T01940131  RH  067%=      5-min Rain = 0
KAI1 120212Z 11007KT 19/13 A3014 RMK A01 T01930132  RH  068%=      5-min Rain = 0
KAI1 120213Z 11007KT 19/13 A3014 RMK A01 T01920131  RH  068%=      5-min Rain = 0
KAI1 120214Z 11007KT 19/13 A3014 RMK A01 T01910131  RH  068%=      5-min Rain = 0
KAI1 120215Z 11007KT 19/13 A3014 RMK A01 T01910131  RH  068%=      5-min Rain = 0
KAI1 120216Z 11006KT 19/13 A3014 RMK A01 T01910131  RH  068%=      5-min Rain = 0
KAI1 120217Z 10006KT 19/13 A3014 RMK A01 T01910131  RH  068%=      5-min Rain = 0
KAI1 120218Z 10006KT 19/13 A3014 RMK A01 T01900131  RH  069%=      5-min Rain = 0
KAI1 120219Z 11006KT 19/13 A3014 RMK A01 T01900131  RH  069%=      5-min Rain = 0
KAI1 120220Z 11006KT 19/13 A3014 RMK A01 T01890131  RH  069%=      5-min Rain = 0
KAI1 120221Z 11006KT 19/13 A3014 RMK A01 T01890131  RH  069%=      5-min Rain = 0
KAI1 120222Z 11006KT 19/13 A3015 RMK A01 T01890131  RH  069%=      5-min Rain = 0
KAI1 120223Z 11006KT 19/13 A3015 RMK A01 T01880131  RH  069%=      5-min Rain = 0
KAI1 120224Z 11006KT 19/13 A3015 RMK A01 T01880131  RH  069%=      5-min Rain = 0
KAI1 120225Z 10006KT 19/13 A3015 RMK A01 T01880131  RH  069%=      5-min Rain = 0
KAI1 120226Z 10006KT 19/13 A3015 RMK A01 T01870130  RH  069%=      5-min Rain = 0
KAI1 120227Z 10005KT 19/13 A3015 RMK A01 T01870131  RH  070%=      5-min Rain = 0
KAI1 120228Z 11005KT 19/13 A3015 RMK A01 T01870130  RH  070%=      5-min Rain = 0
KAI1 120229Z 11005KT 19/13 A3015 RMK A01 T01870130  RH  070%=      5-min Rain = 0
KAI1 120230Z 11005KT 19/13 A3015 RMK A01 T01870130  RH  070%=      5-min Rain = 0
KAI1 120231Z 12004KT 19/13 A3015 RMK A01 T01860129  RH  069%=      5-min Rain = 0
KAI1 120232Z 13004KT 19/13 A3015 RMK A01 T01860128  RH  069%=      5-min Rain = 0
KAI1 120233Z 14005KT 19/13 A3015 RMK A01 T01860125  RH  068%=      5-min Rain = 0
KAI1 120234Z 14005KT 19/12 A3015 RMK A01 T01860121  RH  066%=      5-min Rain = 0
KAI1 120235Z 13005KT 19/12 A3015 RMK A01 T01860117  RH  064%=      5-min Rain = 0
KAI1 120236Z 13005KT 19/12 A3015 RMK A01 T01860116  RH  064%=      5-min Rain = 0
KAI1 120237Z 13005KT 19/12 A3015 RMK A01 T01860116  RH  064%=      5-min Rain = 0
KAI1 120238Z 14005KT 19/12 A3015 RMK A01 T01860117  RH  064%=      5-min Rain = 0
KAI1 120239Z 13006KT 19/12 A3015 RMK A01 T01860119  RH  065%=      5-min Rain = 0
KAI1 120240Z 13006KT 19/12 A3015 RMK A01 T01860119  RH  065%=      5-min Rain = 0
KAI1 120241Z 12006KT 19/12 A3015 RMK A01 T01850119  RH  065%=      5-min Rain = 0
KAI1 120242Z 12007KT 19/12 A3015 RMK A01 T01850119  RH  065%=      5-min Rain = 0
KAI1 120243Z 11007KT 19/12 A3015 RMK A01 T01850119  RH  065%=      5-min Rain = 0
KAI1 120244Z 12007KT 19/12 A3015 RMK A01 T01860120  RH  066%=      5-min Rain = 0
KAI1 120245Z 12007KT 19/12 A3015 RMK A01 T01860120  RH  066%=      5-min Rain = 0
KAI1 120246Z 12007KT 19/12 A3015 RMK A01 T01860121  RH  066%=      5-min Rain = 0
KAI1 120247Z 12007KT 19/12 A3015 RMK A01 T01850121  RH  066%=      5-min Rain = 0
KAI1 120248Z 12007KT 19/12 A3015 RMK A01 T01860121  RH  066%=      5-min Rain = 0
KAI1 120249Z 12007KT 19/12 A3015 RMK A01 T01860120  RH  066%=      5-min Rain = 0
KAI1 120250Z 12007KT 19/12 A3015 RMK A01 T01860120  RH  065%=      5-min Rain = 0
KAI1 120251Z 12007KT 19/12 A3015 RMK A01 T01860120  RH  065%=      5-min Rain = 0
KAI1 120252Z 12007KT 19/12 A3015 RMK A01 T01870121  RH  065%=      5-min Rain = 0
KAI1 120253Z 12007KT 19/12 A3015 RMK A01 T01870120  RH  065%=      5-min Rain = 0
KAI1 120254Z 12007KT 19/12 A3015 RMK A01 T01870120  RH  065%=      5-min Rain = 0
KAI1 120255Z 11007KT 19/12 A3015 RMK A01 T01870121  RH  065%=      5-min Rain = 0
KAI1 120256Z 11007KT 19/12 A3015 RMK A01 T01870121  RH  065%=      5-min Rain = 0
KAI1 120257Z 11007KT 19/12 A3015 RMK A01 T01860121  RH  066%=      5-min Rain = 0
KAI1 120258Z 11007KT 19/12 A3015 RMK A01 T01860121  RH  066%=      5-min Rain = 0
KAI1 120259Z 10008KT 19/12 A3015 RMK A01 T01860120  RH  066%=      5-min Rain = 0
KAI1 120300Z 10008KT 19/12 A3015 RMK A01 T01860120  RH  065%=      5-min Rain = 0
KAI1 120301Z 10008KT 19/12 A3016 RMK A01 T01870120  RH  065%=      5-min Rain = 0
KAI1 120302Z 11007KT 19/12 A3016 RMK A01 T01870121  RH  065%=      5-min Rain = 0
KAI1 120303Z 11007KT 19/12 A3016 RMK A01 T01870122  RH  066%=      5-min Rain = 0
KAI1 120304Z 11007KT 19/12 A3016 RMK A01 T01860122  RH  066%=      5-min Rain = 0
KAI1 120305Z 11007KT 19/12 A3016 RMK A01 T01850123  RH  067%=      5-min Rain = 0
KAI1 120306Z 10007KT 18/12 A3016 RMK A01 T01840123  RH  068%=      5-min Rain = 0
KAI1 120307Z 10007KT 18/12 A3016 RMK A01 T01830124  RH  068%=      5-min Rain = 0
KAI1 120308Z 11007KT 18/12 A3016 RMK A01 T01810124  RH  069%=      5-min Rain = 0
KAI1 120309Z 11007KT 18/12 A3016 RMK A01 T01800124  RH  069%=      5-min Rain = 0
KAI1 120310Z 11007KT 18/12 A3016 RMK A01 T01790124  RH  070%=      5-min Rain = 0
KAI1 120311Z 11007KT 18/12 A3016 RMK A01 T01790124  RH  070%=      5-min Rain = 0
KAI1 120312Z 11006KT 18/12 A3016 RMK A01 T01780124  RH  071%=      5-min Rain = 0
KAI1 120313Z 11006KT 18/12 A3016 RMK A01 T01780124  RH  071%=      5-min Rain = 0
KAI1 120314Z 11006KT 18/12 A3016 RMK A01 T01770124  RH  071%=      5-min Rain = 0
KAI1 120315Z 11006KT 18/12 A3016 RMK A01 T01770123  RH  071%=      5-min Rain = 0
KAI1 120316Z 11006KT 18/12 A3016 RMK A01 T01770124  RH  071%=      5-min Rain = 0
KAI1 120317Z 11005KT 18/12 A3016 RMK A01 T01770123  RH  071%=      5-min Rain = 0
KAI1 120318Z 11005KT 18/12 A3016 RMK A01 T01770123  RH  071%=      5-min Rain = 0
KAI1 120319Z 11005KT 18/12 A3016 RMK A01 T01770123  RH  070%=      5-min Rain = 0
KAI1 120320Z 11005KT 18/12 A3016 RMK A01 T01770123  RH  071%=      5-min Rain = 0
KAI1 120321Z 11006KT 18/12 A3016 RMK A01 T01770123  RH  070%=      5-min Rain = 0
KAI1 120322Z 11006KT 18/12 A3016 RMK A01 T01770122  RH  070%=      5-min Rain = 0
KAI1 120323Z 12006KT 18/12 A3016 RMK A01 T01780122  RH  070%=      5-min Rain = 0
KAI1 120324Z 12005KT 18/12 A3016 RMK A01 T01770122  RH  070%=      5-min Rain = 0
KAI1 120325Z 12005KT 18/12 A3016 RMK A01 T01770121  RH  070%=      5-min Rain = 0
KAI1 120326Z 12006KT 18/12 A3016 RMK A01 T01770121  RH  070%=      5-min Rain = 0
KAI1 120327Z 12006KT 18/12 A3016 RMK A01 T01770119  RH  068%=      5-min Rain = 0
KAI1 120328Z 12006KT 18/12 A3016 RMK A01 T01770117  RH  068%=      5-min Rain = 0
KAI1 120329Z 12006KT 18/12 A3016 RMK A01 T01780117  RH  067%=      5-min Rain = 0
KAI1 120330Z 12006KT 18/12 A3016 RMK A01 T01780116  RH  067%=      5-min Rain = 0
KAI1 120331Z 12006KT 18/12 A3016 RMK A01 T01780116  RH  067%=      5-min Rain = 0
KAI1 120332Z 11006KT 18/12 A3016 RMK A01 T01790116  RH  067%=      5-min Rain = 0
KAI1 120333Z 11007KT 18/12 A3016 RMK A01 T01790116  RH  067%=      5-min Rain = 0
KAI1 120334Z 11007KT 18/12 A3016 RMK A01 T01790116  RH  067%=      5-min Rain = 0
KAI1 120335Z 12007KT 18/12 A3016 RMK A01 T01800117  RH  067%=      5-min Rain = 0
KAI1 120336Z 11007KT 18/12 A3016 RMK A01 T01800117  RH  067%=      5-min Rain = 0
KAI1 120337Z 11007KT 18/12 A3016 RMK A01 T01800118  RH  067%=      5-min Rain = 0
KAI1 120338Z 11007KT 18/12 A3016 RMK A01 T01800118  RH  067%=      5-min Rain = 0
KAI1 120339Z 11007KT 18/12 A3016 RMK A01 T01800118  RH  067%=      5-min Rain = 0
KAI1 120340Z 12007KT 18/12 A3016 RMK A01 T01800119  RH  067%=      5-min Rain = 0
KAI1 120341Z 12007KT 18/12 A3016 RMK A01 T01790119  RH  068%=      5-min Rain = 0
KAI1 120342Z 12007KT 18/12 A3016 RMK A01 T01780119  RH  068%=      5-min Rain = 0
KAI1 120343Z 12007KT 18/12 A3016 RMK A01 T01770119  RH  068%=      5-min Rain = 0
KAI1 120344Z 12007KT 18/12 A3016 RMK A01 T01770118  RH  068%=      5-min Rain = 0
KAI1 120345Z 12008KT 18/12 A3016 RMK A01 T01770118  RH  068%=      5-min Rain = 0
KAI1 120346Z 12008KT 18/12 A3016 RMK A01 T01770118  RH  069%=      5-min Rain = 0
KAI1 120347Z 12008KT 18/12 A3016 RMK A01 T01760118  RH  069%=      5-min Rain = 0
KAI1 120348Z 12008KT 18/12 A3016 RMK A01 T01760118  RH  069%=      5-min Rain = 0
KAI1 120349Z 12008KT 18/12 A3016 RMK A01 T01760118  RH  069%=      5-min Rain = 0
KAI1 120350Z 12008KT 18/12 A3016 RMK A01 T01760118  RH  069%=      5-min Rain = 0
KAI1 120351Z 12008KT 18/12 A3016 RMK A01 T01750118  RH  069%=      5-min Rain = 0
KAI1 120352Z 12008KT 18/12 A3016 RMK A01 T01750119  RH  069%=      5-min Rain = 0
KAI1 120353Z 12008KT 17/12 A3016 RMK A01 T01740118  RH  070%=      5-min Rain = 0
KAI1 120354Z 12008KT 17/12 A3016 RMK A01 T01740119  RH  070%=      5-min Rain = 0
KAI1 120355Z 12008KT 17/12 A3016 RMK A01 T01740118  RH  070%=      5-min Rain = 0
KAI1 120356Z 12008KT 17/12 A3016 RMK A01 T01740118  RH  069%=      5-min Rain = 0
KAI1 120357Z 12008KT 17/12 A3016 RMK A01 T01740117  RH  069%=      5-min Rain = 0
KAI1 120358Z 12007KT 17/12 A3016 RMK A01 T01740117  RH  069%=      5-min Rain = 0
KAI1 120359Z 12007KT 17/12 A3016 RMK A01 T01740117  RH  069%=      5-min Rain = 0
KAI1 120400Z 12007KT 17/12 A3016 RMK A01 T01740116  RH  069%=      5-min Rain = 0
KAI1 120401Z 12007KT 17/12 A3016 RMK A01 T01730115  RH  069%=      5-min Rain = 0
KAI1 120402Z 12008KT 17/12 A3016 RMK A01 T01730115  RH  069%=      5-min Rain = 0
KAI1 120403Z 12007KT 17/11 A3016 RMK A01 T01730114  RH  069%=      5-min Rain = 0
KAI1 120404Z 12007KT 17/11 A3016 RMK A01 T01720114  RH  069%=      5-min Rain = 0
KAI1 120405Z 12007KT 17/11 A3016 RMK A01 T01720114  RH  069%=      5-min Rain = 0
KAI1 120406Z 12007KT 17/11 A3016 RMK A01 T01720114  RH  069%=      5-min Rain = 0
KAI1 120407Z 12007KT 17/11 A3016 RMK A01 T01710113  RH  069%=      5-min Rain = 0
KAI1 120408Z 12007KT 17/11 A3016 RMK A01 T01710113  RH  069%=      5-min Rain = 0
KAI1 120409Z 12007KT 17/11 A3016 RMK A01 T01700113  RH  069%=      5-min Rain = 0
KAI1 120410Z 12007KT 17/11 A3016 RMK A01 T01700114  RH  070%=      5-min Rain = 0
KAI1 120411Z 12007KT 17/11 A3016 RMK A01 T01700114  RH  070%=      5-min Rain = 0
KAI1 120412Z 12007KT 17/11 A3016 RMK A01 T01690114  RH  070%=      5-min Rain = 0
KAI1 120413Z 12007KT 17/11 A3016 RMK A01 T01690113  RH  070%=      5-min Rain = 0
KAI1 120414Z 12007KT 17/11 A3016 RMK A01 T01690113  RH  070%=      5-min Rain = 0
KAI1 120415Z 12007KT 17/11 A3016 RMK A01 T01690113  RH  070%=      5-min Rain = 0
KAI1 120416Z 12007KT 17/11 A3016 RMK A01 T01690114  RH  070%=      5-min Rain = 0
KAI1 120417Z 13007KT 17/11 A3016 RMK A01 T01690113  RH  070%=      5-min Rain = 0
KAI1 120418Z 13007KT 17/11 A3016 RMK A01 T01690112  RH  069%=      5-min Rain = 0
KAI1 120419Z 13007KT 17/11 A3016 RMK A01 T01680112  RH  069%=      5-min Rain = 0
KAI1 120420Z 13007KT 17/11 A3016 RMK A01 T01680112  RH  069%=      5-min Rain = 0
KAI1 120421Z 13007KT 17/11 A3016 RMK A01 T01680111  RH  069%=      5-min Rain = 0
KAI1 120422Z 13007KT 17/11 A3016 RMK A01 T01680112  RH  069%=      5-min Rain = 0
KAI1 120423Z 13007KT 17/11 A3016 RMK A01 T01670112  RH  070%=      5-min Rain = 0
KAI1 120424Z 13006KT 17/11 A3016 RMK A01 T01670112  RH  070%=      5-min Rain = 0
KAI1 120425Z 13006KT 17/11 A3016 RMK A01 T01670113  RH  070%=      5-min Rain = 0
KAI1 120426Z 13006KT 17/11 A3016 RMK A01 T01660113  RH  071%=      5-min Rain = 0
KAI1 120427Z 13006KT 17/11 A3016 RMK A01 T01650113  RH  071%=      5-min Rain = 0
KAI1 120428Z 13006KT 17/11 A3016 RMK A01 T01650113  RH  071%=      5-min Rain = 0
KAI1 120429Z 13006KT 16/11 A3016 RMK A01 T01640113  RH  072%=      5-min Rain = 0
KAI1 120430Z 13006KT 16/11 A3016 RMK A01 T01640113  RH  072%=      5-min Rain = 0
KAI1 120431Z 13006KT 16/11 A3016 RMK A01 T01640113  RH  072%=      5-min Rain = 0
KAI1 120432Z 13006KT 16/11 A3016 RMK A01 T01640113  RH  072%=      5-min Rain = 0
KAI1 120433Z 13006KT 16/11 A3016 RMK A01 T01630112  RH  072%=      5-min Rain = 0
KAI1 120434Z 13006KT 16/11 A3016 RMK A01 T01630113  RH  072%=      5-min Rain = 0
KAI1 120435Z 14006KT 16/11 A3016 RMK A01 T01630113  RH  072%=      5-min Rain = 0
KAI1 120436Z 14006KT 16/11 A3016 RMK A01 T01620113  RH  072%=      5-min Rain = 0
KAI1 120437Z 14006KT 16/11 A3016 RMK A01 T01620113  RH  073%=      5-min Rain = 0
KAI1 120438Z 14006KT 16/11 A3016 RMK A01 T01610113  RH  073%=      5-min Rain = 0
KAI1 120439Z 14006KT 16/11 A3016 RMK A01 T01610113  RH  073%=      5-min Rain = 0
KAI1 120440Z 14006KT 16/11 A3016 RMK A01 T01610113  RH  073%=      5-min Rain = 0
KAI1 120441Z 13006KT 16/11 A3016 RMK A01 T01600112  RH  073%=      5-min Rain = 0
KAI1 120442Z 13006KT 16/11 A3015 RMK A01 T01600112  RH  073%=      5-min Rain = 0
KAI1 120443Z 14006KT 16/11 A3015 RMK A01 T01600112  RH  073%=      5-min Rain = 0
KAI1 120444Z 14007KT 16/11 A3015 RMK A01 T01600113  RH  073%=      5-min Rain = 0
KAI1 120445Z 14007KT 16/11 A3015 RMK A01 T01600113  RH  074%=      5-min Rain = 0
KAI1 120446Z 14006KT 16/11 A3015 RMK A01 T01600113  RH  074%=      5-min Rain = 0
KAI1 120447Z 14006KT 16/11 A3015 RMK A01 T01600113  RH  074%=      5-min Rain = 0
KAI1 120448Z 14007KT 16/11 A3015 RMK A01 T01600113  RH  074%=      5-min Rain = 0
KAI1 120449Z 14007KT 16/11 A3015 RMK A01 T01600113  RH  074%=      5-min Rain = 0
KAI1 120450Z 14007KT 16/11 A3015 RMK A01 T01600113  RH  074%=      5-min Rain = 0
KAI1 120451Z 14007KT 16/11 A3015 RMK A01 T01590114  RH  074%=      5-min Rain = 0
KAI1 120452Z 14007KT 16/11 A3015 RMK A01 T01600114  RH  074%=      5-min Rain = 0
KAI1 120453Z 14007KT 16/12 A3015 RMK A01 T01600115  RH  075%=      5-min Rain = 0
KAI1 120454Z 14007KT 16/12 A3015 RMK A01 T01590115  RH  075%=      5-min Rain = 0
KAI1 120455Z 14007KT 16/12 A3015 RMK A01 T01590115  RH  075%=      5-min Rain = 0
KAI1 120456Z 13007KT 16/12 A3015 RMK A01 T01580115  RH  075%=      5-min Rain = 0
KAI1 120457Z 13007KT 16/11 A3015 RMK A01 T01580114  RH  075%=      5-min Rain = 0
KAI1 120458Z 14007KT 16/11 A3015 RMK A01 T01580114  RH  075%=      5-min Rain = 0
KAI1 120459Z 14007KT 16/11 A3015 RMK A01 T01580114  RH  075%=      5-min Rain = 0

Page generated in 0.1494 seconds.